<?xml version="1.0" encoding="UTF-8" standalone="no" ?>
<gpx xmlns="http://www.topografix.com/GPX/1/1" xmlns:xsi="http://www.w3.org/2001/XMLSchema-instance" xsi:schemaLocation="http://www.topografix.com/GPX/1/1 http://www.topografix.com/GPX/1/1/gpx.xsd" version="1.1" creator="VisuGPX - https://www.visugpx.com">
  <metadata>
    <name>9 Bosses dans Vire (rayon ~1 km)</name>
    <desc><![CDATA[Quelques bosses viroises pour le confinement.Circuit N°1.]]></desc>
  </metadata>
  <trk>
    <name><![CDATA[Boucle viroise rayon 1 km]]></name>
    <trkseg>
      <trkpt lat="48.84533" lon="-0.89575">
        <ele>112.3</ele>
        <time>2020-11-12T10:54:02Z</time>
      </trkpt>
      <trkpt lat="48.84543" lon="-0.89559">
        <ele>112.9</ele>
        <time>2020-11-12T10:54:02Z</time>
      </trkpt>
      <trkpt lat="48.84541" lon="-0.89541">
        <ele>114.1</ele>
        <time>2020-11-12T10:54:02Z</time>
      </trkpt>
      <trkpt lat="48.84528" lon="-0.89512">
        <ele>116</ele>
        <time>2020-11-12T10:54:02Z</time>
      </trkpt>
      <trkpt lat="48.84524" lon="-0.8951">
        <ele>116.3</ele>
        <time>2020-11-12T10:54:02Z</time>
      </trkpt>
      <trkpt lat="48.84517" lon="-0.89502">
        <ele>116.8</ele>
        <time>2020-11-12T10:54:02Z</time>
      </trkpt>
      <trkpt lat="48.84516" lon="-0.89487">
        <ele>116.9</ele>
        <time>2020-11-12T10:54:02Z</time>
      </trkpt>
      <trkpt lat="48.84522" lon="-0.89469">
        <ele>116.4</ele>
        <time>2020-11-12T10:54:02Z</time>
      </trkpt>
      <trkpt lat="48.84528" lon="-0.89451">
        <ele>115.3</ele>
        <time>2020-11-12T10:54:02Z</time>
      </trkpt>
      <trkpt lat="48.84528" lon="-0.89453">
        <ele>115.3</ele>
        <time>2020-11-12T10:54:02Z</time>
      </trkpt>
      <trkpt lat="48.84529" lon="-0.89453">
        <ele>115.2</ele>
        <time>2020-11-12T10:54:02Z</time>
      </trkpt>
      <trkpt lat="48.8453" lon="-0.89437">
        <ele>114.9</ele>
        <time>2020-11-12T10:54:02Z</time>
      </trkpt>
      <trkpt lat="48.8453" lon="-0.89421">
        <ele>114.9</ele>
        <time>2020-11-12T10:54:02Z</time>
      </trkpt>
      <trkpt lat="48.84526" lon="-0.89388">
        <ele>115.3</ele>
        <time>2020-11-12T10:54:02Z</time>
      </trkpt>
      <trkpt lat="48.84526" lon="-0.89388">
        <ele>115.3</ele>
        <time>2020-11-12T10:54:02Z</time>
      </trkpt>
      <trkpt lat="48.84526" lon="-0.89388">
        <ele>115.3</ele>
        <time>2020-11-12T10:54:02Z</time>
      </trkpt>
      <trkpt lat="48.84517" lon="-0.89346">
        <ele>117</ele>
        <time>2020-11-12T10:54:02Z</time>
      </trkpt>
      <trkpt lat="48.84517" lon="-0.89344">
        <ele>117.1</ele>
        <time>2020-11-12T10:54:02Z</time>
      </trkpt>
      <trkpt lat="48.84513" lon="-0.89314">
        <ele>117.3</ele>
        <time>2020-11-12T10:54:02Z</time>
      </trkpt>
      <trkpt lat="48.84513" lon="-0.89248">
        <ele>119</ele>
        <time>2020-11-12T10:54:02Z</time>
      </trkpt>
      <trkpt lat="48.84516" lon="-0.89199">
        <ele>117.9</ele>
        <time>2020-11-12T10:54:02Z</time>
      </trkpt>
      <trkpt lat="48.84517" lon="-0.89194">
        <ele>117.8</ele>
        <time>2020-11-12T10:54:02Z</time>
      </trkpt>
      <trkpt lat="48.84517" lon="-0.89193">
        <ele>117.9</ele>
        <time>2020-11-12T10:54:02Z</time>
      </trkpt>
      <trkpt lat="48.84517" lon="-0.89193">
        <ele>117.9</ele>
        <time>2020-11-12T10:54:02Z</time>
      </trkpt>
      <trkpt lat="48.84519" lon="-0.89177">
        <ele>118.3</ele>
        <time>2020-11-12T10:54:02Z</time>
      </trkpt>
      <trkpt lat="48.84526" lon="-0.89122">
        <ele>118.9</ele>
        <time>2020-11-12T10:54:02Z</time>
      </trkpt>
      <trkpt lat="48.8453" lon="-0.89094">
        <ele>119.6</ele>
        <time>2020-11-12T10:54:02Z</time>
      </trkpt>
      <trkpt lat="48.8453" lon="-0.89094">
        <ele>119.6</ele>
        <time>2020-11-12T10:54:02Z</time>
      </trkpt>
      <trkpt lat="48.84551" lon="-0.8894">
        <ele>122.9</ele>
        <time>2020-11-12T10:54:02Z</time>
      </trkpt>
      <trkpt lat="48.84565" lon="-0.88864">
        <ele>123.1</ele>
        <time>2020-11-12T10:54:02Z</time>
      </trkpt>
      <trkpt lat="48.8457" lon="-0.88841">
        <ele>123.6</ele>
        <time>2020-11-12T10:54:02Z</time>
      </trkpt>
      <trkpt lat="48.84592" lon="-0.8873">
        <ele>124</ele>
        <time>2020-11-12T10:54:02Z</time>
      </trkpt>
      <trkpt lat="48.846" lon="-0.88709">
        <ele>124</ele>
        <time>2020-11-12T10:54:02Z</time>
      </trkpt>
      <trkpt lat="48.84612" lon="-0.88686">
        <ele>123.2</ele>
        <time>2020-11-12T10:54:02Z</time>
      </trkpt>
      <trkpt lat="48.84631" lon="-0.88667">
        <ele>124</ele>
        <time>2020-11-12T10:54:02Z</time>
      </trkpt>
      <trkpt lat="48.84632" lon="-0.88666">
        <ele>124</ele>
        <time>2020-11-12T10:54:02Z</time>
      </trkpt>
      <trkpt lat="48.84632" lon="-0.88666">
        <ele>124</ele>
        <time>2020-11-12T10:54:02Z</time>
      </trkpt>
      <trkpt lat="48.84639" lon="-0.88659">
        <ele>124</ele>
        <time>2020-11-12T10:54:02Z</time>
      </trkpt>
      <trkpt lat="48.84646" lon="-0.88651">
        <ele>123.9</ele>
        <time>2020-11-12T10:54:02Z</time>
      </trkpt>
      <trkpt lat="48.84657" lon="-0.88638">
        <ele>124</ele>
        <time>2020-11-12T10:54:02Z</time>
      </trkpt>
      <trkpt lat="48.84662" lon="-0.88624">
        <ele>124.6</ele>
        <time>2020-11-12T10:54:02Z</time>
      </trkpt>
      <trkpt lat="48.84664" lon="-0.8861">
        <ele>125</ele>
        <time>2020-11-12T10:54:02Z</time>
      </trkpt>
      <trkpt lat="48.84665" lon="-0.88602">
        <ele>125.3</ele>
        <time>2020-11-12T10:54:02Z</time>
      </trkpt>
      <trkpt lat="48.84664" lon="-0.88595">
        <ele>125.6</ele>
        <time>2020-11-12T10:54:02Z</time>
      </trkpt>
      <trkpt lat="48.84664" lon="-0.88595">
        <ele>125.6</ele>
        <time>2020-11-12T10:54:02Z</time>
      </trkpt>
      <trkpt lat="48.84664" lon="-0.88585">
        <ele>126</ele>
        <time>2020-11-12T10:54:02Z</time>
      </trkpt>
      <trkpt lat="48.84661" lon="-0.88563">
        <ele>126.6</ele>
        <time>2020-11-12T10:54:02Z</time>
      </trkpt>
      <trkpt lat="48.8466" lon="-0.88553">
        <ele>126.8</ele>
        <time>2020-11-12T10:54:02Z</time>
      </trkpt>
      <trkpt lat="48.84657" lon="-0.88558">
        <ele>126.6</ele>
        <time>2020-11-12T10:54:02Z</time>
      </trkpt>
      <trkpt lat="48.8465" lon="-0.88567">
        <ele>126.2</ele>
        <time>2020-11-12T10:54:02Z</time>
      </trkpt>
      <trkpt lat="48.84647" lon="-0.88571">
        <ele>126.1</ele>
        <time>2020-11-12T10:54:02Z</time>
      </trkpt>
      <trkpt lat="48.84646" lon="-0.88572">
        <ele>126.1</ele>
        <time>2020-11-12T10:54:02Z</time>
      </trkpt>
      <trkpt lat="48.84646" lon="-0.88572">
        <ele>126.1</ele>
        <time>2020-11-12T10:54:02Z</time>
      </trkpt>
      <trkpt lat="48.84628" lon="-0.88585">
        <ele>126.3</ele>
        <time>2020-11-12T10:54:02Z</time>
      </trkpt>
      <trkpt lat="48.84617" lon="-0.88598">
        <ele>126.3</ele>
        <time>2020-11-12T10:54:02Z</time>
      </trkpt>
      <trkpt lat="48.8461" lon="-0.88604">
        <ele>126.6</ele>
        <time>2020-11-12T10:54:02Z</time>
      </trkpt>
      <trkpt lat="48.846" lon="-0.88612">
        <ele>128.4</ele>
        <time>2020-11-12T10:54:02Z</time>
      </trkpt>
      <trkpt lat="48.84568" lon="-0.88635">
        <ele>129.7</ele>
        <time>2020-11-12T10:54:02Z</time>
      </trkpt>
      <trkpt lat="48.84543" lon="-0.88655">
        <ele>129.4</ele>
        <time>2020-11-12T10:54:02Z</time>
      </trkpt>
      <trkpt lat="48.84536" lon="-0.8863">
        <ele>130.5</ele>
        <time>2020-11-12T10:54:02Z</time>
      </trkpt>
      <trkpt lat="48.84536" lon="-0.8863">
        <ele>130.5</ele>
        <time>2020-11-12T10:54:02Z</time>
      </trkpt>
      <trkpt lat="48.84536" lon="-0.88629">
        <ele>130.6</ele>
        <time>2020-11-12T10:54:02Z</time>
      </trkpt>
      <trkpt lat="48.84535" lon="-0.88619">
        <ele>131</ele>
        <time>2020-11-12T10:54:02Z</time>
      </trkpt>
      <trkpt lat="48.84536" lon="-0.88608">
        <ele>131.7</ele>
        <time>2020-11-12T10:54:02Z</time>
      </trkpt>
      <trkpt lat="48.8454" lon="-0.88598">
        <ele>132.8</ele>
        <time>2020-11-12T10:54:02Z</time>
      </trkpt>
      <trkpt lat="48.84556" lon="-0.88574">
        <ele>132</ele>
        <time>2020-11-12T10:54:02Z</time>
      </trkpt>
      <trkpt lat="48.84575" lon="-0.88551">
        <ele>132.8</ele>
        <time>2020-11-12T10:54:02Z</time>
      </trkpt>
      <trkpt lat="48.84582" lon="-0.88536">
        <ele>132.8</ele>
        <time>2020-11-12T10:54:02Z</time>
      </trkpt>
      <trkpt lat="48.84583" lon="-0.88529">
        <ele>133</ele>
        <time>2020-11-12T10:54:02Z</time>
      </trkpt>
      <trkpt lat="48.84584" lon="-0.88522">
        <ele>133.2</ele>
        <time>2020-11-12T10:54:02Z</time>
      </trkpt>
      <trkpt lat="48.84583" lon="-0.88507">
        <ele>133.8</ele>
        <time>2020-11-12T10:54:02Z</time>
      </trkpt>
      <trkpt lat="48.84581" lon="-0.88492">
        <ele>134.4</ele>
        <time>2020-11-12T10:54:02Z</time>
      </trkpt>
      <trkpt lat="48.84577" lon="-0.8848">
        <ele>135</ele>
        <time>2020-11-12T10:54:02Z</time>
      </trkpt>
      <trkpt lat="48.84575" lon="-0.88483">
        <ele>135</ele>
        <time>2020-11-12T10:54:02Z</time>
      </trkpt>
      <trkpt lat="48.84569" lon="-0.88487">
        <ele>135.3</ele>
        <time>2020-11-12T10:54:02Z</time>
      </trkpt>
      <trkpt lat="48.84566" lon="-0.88487">
        <ele>135.5</ele>
        <time>2020-11-12T10:54:02Z</time>
      </trkpt>
      <trkpt lat="48.84554" lon="-0.88494">
        <ele>136.1</ele>
        <time>2020-11-12T10:54:02Z</time>
      </trkpt>
      <trkpt lat="48.84545" lon="-0.885">
        <ele>136.8</ele>
        <time>2020-11-12T10:54:02Z</time>
      </trkpt>
      <trkpt lat="48.84527" lon="-0.88511">
        <ele>138.1</ele>
        <time>2020-11-12T10:54:02Z</time>
      </trkpt>
      <trkpt lat="48.84527" lon="-0.88511">
        <ele>138.1</ele>
        <time>2020-11-12T10:54:02Z</time>
      </trkpt>
      <trkpt lat="48.84481" lon="-0.88538">
        <ele>141.4</ele>
        <time>2020-11-12T10:54:02Z</time>
      </trkpt>
      <trkpt lat="48.84471" lon="-0.88544">
        <ele>142.1</ele>
        <time>2020-11-12T10:54:02Z</time>
      </trkpt>
      <trkpt lat="48.84463" lon="-0.88529">
        <ele>142.6</ele>
        <time>2020-11-12T10:54:02Z</time>
      </trkpt>
      <trkpt lat="48.8446" lon="-0.88522">
        <ele>142.8</ele>
        <time>2020-11-12T10:54:02Z</time>
      </trkpt>
      <trkpt lat="48.84419" lon="-0.88451">
        <ele>145.8</ele>
        <time>2020-11-12T10:54:02Z</time>
      </trkpt>
      <trkpt lat="48.84408" lon="-0.88421">
        <ele>147.6</ele>
        <time>2020-11-12T10:54:02Z</time>
      </trkpt>
      <trkpt lat="48.84404" lon="-0.88388">
        <ele>147.9</ele>
        <time>2020-11-12T10:54:02Z</time>
      </trkpt>
      <trkpt lat="48.84397" lon="-0.88277">
        <ele>149.2</ele>
        <time>2020-11-12T10:54:02Z</time>
      </trkpt>
      <trkpt lat="48.84396" lon="-0.88259">
        <ele>149.4</ele>
        <time>2020-11-12T10:54:02Z</time>
      </trkpt>
      <trkpt lat="48.84393" lon="-0.8826">
        <ele>149.6</ele>
        <time>2020-11-12T10:54:02Z</time>
      </trkpt>
      <trkpt lat="48.84392" lon="-0.88261">
        <ele>149.8</ele>
        <time>2020-11-12T10:54:02Z</time>
      </trkpt>
      <trkpt lat="48.84392" lon="-0.88261">
        <ele>149.8</ele>
        <time>2020-11-12T10:54:02Z</time>
      </trkpt>
      <trkpt lat="48.8439" lon="-0.88261">
        <ele>149.9</ele>
        <time>2020-11-12T10:54:02Z</time>
      </trkpt>
      <trkpt lat="48.84387" lon="-0.88263">
        <ele>150.2</ele>
        <time>2020-11-12T10:54:02Z</time>
      </trkpt>
      <trkpt lat="48.84307" lon="-0.88317">
        <ele>157.9</ele>
        <time>2020-11-12T10:54:02Z</time>
      </trkpt>
      <trkpt lat="48.84293" lon="-0.88327">
        <ele>159.3</ele>
        <time>2020-11-12T10:54:02Z</time>
      </trkpt>
      <trkpt lat="48.8428" lon="-0.88336">
        <ele>160.9</ele>
        <time>2020-11-12T10:54:02Z</time>
      </trkpt>
      <trkpt lat="48.84244" lon="-0.88362">
        <ele>165.1</ele>
        <time>2020-11-12T10:54:02Z</time>
      </trkpt>
      <trkpt lat="48.84214" lon="-0.88381">
        <ele>169.9</ele>
        <time>2020-11-12T10:54:02Z</time>
      </trkpt>
      <trkpt lat="48.8421" lon="-0.88383">
        <ele>170.4</ele>
        <time>2020-11-12T10:54:02Z</time>
      </trkpt>
      <trkpt lat="48.84185" lon="-0.88392">
        <ele>173.4</ele>
        <time>2020-11-12T10:54:02Z</time>
      </trkpt>
      <trkpt lat="48.84176" lon="-0.88394">
        <ele>174.5</ele>
        <time>2020-11-12T10:54:02Z</time>
      </trkpt>
      <trkpt lat="48.84167" lon="-0.88394">
        <ele>175.8</ele>
        <time>2020-11-12T10:54:02Z</time>
      </trkpt>
      <trkpt lat="48.8413" lon="-0.88395">
        <ele>180.2</ele>
        <time>2020-11-12T10:54:02Z</time>
      </trkpt>
      <trkpt lat="48.84102" lon="-0.88395">
        <ele>184.2</ele>
        <time>2020-11-12T10:54:02Z</time>
      </trkpt>
      <trkpt lat="48.84098" lon="-0.88396">
        <ele>184.8</ele>
        <time>2020-11-12T10:54:02Z</time>
      </trkpt>
      <trkpt lat="48.84088" lon="-0.88397">
        <ele>186.1</ele>
        <time>2020-11-12T10:54:02Z</time>
      </trkpt>
      <trkpt lat="48.84078" lon="-0.88398">
        <ele>187.3</ele>
        <time>2020-11-12T10:54:02Z</time>
      </trkpt>
      <trkpt lat="48.84047" lon="-0.88403">
        <ele>191.6</ele>
        <time>2020-11-12T10:54:02Z</time>
      </trkpt>
      <trkpt lat="48.84" lon="-0.8841">
        <ele>198</ele>
        <time>2020-11-12T10:54:02Z</time>
      </trkpt>
      <trkpt lat="48.83966" lon="-0.88416">
        <ele>200.2</ele>
        <time>2020-11-12T10:54:02Z</time>
      </trkpt>
      <trkpt lat="48.83964" lon="-0.88416">
        <ele>200.3</ele>
        <time>2020-11-12T10:54:02Z</time>
      </trkpt>
      <trkpt lat="48.83964" lon="-0.88416">
        <ele>200.3</ele>
        <time>2020-11-12T10:54:02Z</time>
      </trkpt>
      <trkpt lat="48.83966" lon="-0.88416">
        <ele>200.2</ele>
        <time>2020-11-12T10:54:02Z</time>
      </trkpt>
      <trkpt lat="48.8396" lon="-0.88542">
        <ele>199.9</ele>
        <time>2020-11-12T10:54:02Z</time>
      </trkpt>
      <trkpt lat="48.8396" lon="-0.88555">
        <ele>198.9</ele>
        <time>2020-11-12T10:54:02Z</time>
      </trkpt>
      <trkpt lat="48.83958" lon="-0.88613">
        <ele>195.7</ele>
        <time>2020-11-12T10:54:02Z</time>
      </trkpt>
      <trkpt lat="48.8396" lon="-0.88648">
        <ele>190.2</ele>
        <time>2020-11-12T10:54:02Z</time>
      </trkpt>
      <trkpt lat="48.83965" lon="-0.88707">
        <ele>184.1</ele>
        <time>2020-11-12T10:54:02Z</time>
      </trkpt>
      <trkpt lat="48.83969" lon="-0.88756">
        <ele>180.7</ele>
        <time>2020-11-12T10:54:02Z</time>
      </trkpt>
      <trkpt lat="48.83968" lon="-0.88757">
        <ele>180.7</ele>
        <time>2020-11-12T10:54:02Z</time>
      </trkpt>
      <trkpt lat="48.83968" lon="-0.88757">
        <ele>180.7</ele>
        <time>2020-11-12T10:54:02Z</time>
      </trkpt>
      <trkpt lat="48.8396" lon="-0.88762">
        <ele>180.8</ele>
        <time>2020-11-12T10:54:02Z</time>
      </trkpt>
      <trkpt lat="48.8391" lon="-0.88775">
        <ele>184.1</ele>
        <time>2020-11-12T10:54:02Z</time>
      </trkpt>
      <trkpt lat="48.83875" lon="-0.88782">
        <ele>186.1</ele>
        <time>2020-11-12T10:54:02Z</time>
      </trkpt>
      <trkpt lat="48.83864" lon="-0.88785">
        <ele>186.2</ele>
        <time>2020-11-12T10:54:02Z</time>
      </trkpt>
      <trkpt lat="48.83859" lon="-0.88786">
        <ele>186.1</ele>
        <time>2020-11-12T10:54:02Z</time>
      </trkpt>
      <trkpt lat="48.83837" lon="-0.8879">
        <ele>185.8</ele>
        <time>2020-11-12T10:54:02Z</time>
      </trkpt>
      <trkpt lat="48.8382" lon="-0.88795">
        <ele>183.9</ele>
        <time>2020-11-12T10:54:02Z</time>
      </trkpt>
      <trkpt lat="48.83813" lon="-0.888">
        <ele>182.8</ele>
        <time>2020-11-12T10:54:02Z</time>
      </trkpt>
      <trkpt lat="48.83811" lon="-0.88801">
        <ele>182.7</ele>
        <time>2020-11-12T10:54:02Z</time>
      </trkpt>
      <trkpt lat="48.83811" lon="-0.88801">
        <ele>182.7</ele>
        <time>2020-11-12T10:54:02Z</time>
      </trkpt>
      <trkpt lat="48.83809" lon="-0.88803">
        <ele>182.3</ele>
        <time>2020-11-12T10:54:02Z</time>
      </trkpt>
      <trkpt lat="48.8382" lon="-0.88835">
        <ele>180.3</ele>
        <time>2020-11-12T10:54:02Z</time>
      </trkpt>
      <trkpt lat="48.83844" lon="-0.88904">
        <ele>175.5</ele>
        <time>2020-11-12T10:54:02Z</time>
      </trkpt>
      <trkpt lat="48.83847" lon="-0.88911">
        <ele>175.2</ele>
        <time>2020-11-12T10:54:02Z</time>
      </trkpt>
      <trkpt lat="48.83852" lon="-0.8891">
        <ele>175.2</ele>
        <time>2020-11-12T10:54:02Z</time>
      </trkpt>
      <trkpt lat="48.83856" lon="-0.88911">
        <ele>175.2</ele>
        <time>2020-11-12T10:54:02Z</time>
      </trkpt>
      <trkpt lat="48.8386" lon="-0.88915">
        <ele>175.1</ele>
        <time>2020-11-12T10:54:02Z</time>
      </trkpt>
      <trkpt lat="48.83864" lon="-0.88923">
        <ele>175.3</ele>
        <time>2020-11-12T10:54:02Z</time>
      </trkpt>
      <trkpt lat="48.83866" lon="-0.88932">
        <ele>175.6</ele>
        <time>2020-11-12T10:54:02Z</time>
      </trkpt>
      <trkpt lat="48.83865" lon="-0.88939">
        <ele>175.8</ele>
        <time>2020-11-12T10:54:02Z</time>
      </trkpt>
      <trkpt lat="48.83863" lon="-0.88946">
        <ele>176</ele>
        <time>2020-11-12T10:54:02Z</time>
      </trkpt>
      <trkpt lat="48.83861" lon="-0.88948">
        <ele>176</ele>
        <time>2020-11-12T10:54:02Z</time>
      </trkpt>
      <trkpt lat="48.83861" lon="-0.88948">
        <ele>176</ele>
        <time>2020-11-12T10:54:02Z</time>
      </trkpt>
      <trkpt lat="48.83857" lon="-0.88953">
        <ele>175.9</ele>
        <time>2020-11-12T10:54:02Z</time>
      </trkpt>
      <trkpt lat="48.8385" lon="-0.88955">
        <ele>175.8</ele>
        <time>2020-11-12T10:54:02Z</time>
      </trkpt>
      <trkpt lat="48.83843" lon="-0.88952">
        <ele>175.5</ele>
        <time>2020-11-12T10:54:02Z</time>
      </trkpt>
      <trkpt lat="48.83838" lon="-0.88943">
        <ele>175.1</ele>
        <time>2020-11-12T10:54:02Z</time>
      </trkpt>
      <trkpt lat="48.83836" lon="-0.88937">
        <ele>175.1</ele>
        <time>2020-11-12T10:54:02Z</time>
      </trkpt>
      <trkpt lat="48.83836" lon="-0.88929">
        <ele>175</ele>
        <time>2020-11-12T10:54:02Z</time>
      </trkpt>
      <trkpt lat="48.83832" lon="-0.88928">
        <ele>174.9</ele>
        <time>2020-11-12T10:54:02Z</time>
      </trkpt>
      <trkpt lat="48.83798" lon="-0.88918">
        <ele>172.1</ele>
        <time>2020-11-12T10:54:02Z</time>
      </trkpt>
      <trkpt lat="48.8379" lon="-0.88916">
        <ele>171.4</ele>
        <time>2020-11-12T10:54:02Z</time>
      </trkpt>
      <trkpt lat="48.83787" lon="-0.88915">
        <ele>171.1</ele>
        <time>2020-11-12T10:54:02Z</time>
      </trkpt>
      <trkpt lat="48.83757" lon="-0.88904">
        <ele>168.2</ele>
        <time>2020-11-12T10:54:02Z</time>
      </trkpt>
      <trkpt lat="48.83757" lon="-0.88896">
        <ele>168.5</ele>
        <time>2020-11-12T10:54:02Z</time>
      </trkpt>
      <trkpt lat="48.83757" lon="-0.88887">
        <ele>169</ele>
        <time>2020-11-12T10:54:02Z</time>
      </trkpt>
      <trkpt lat="48.83749" lon="-0.88857">
        <ele>171.3</ele>
        <time>2020-11-12T10:54:02Z</time>
      </trkpt>
      <trkpt lat="48.83748" lon="-0.88846">
        <ele>172.2</ele>
        <time>2020-11-12T10:54:02Z</time>
      </trkpt>
      <trkpt lat="48.83749" lon="-0.88826">
        <ele>174.1</ele>
        <time>2020-11-12T10:54:02Z</time>
      </trkpt>
      <trkpt lat="48.83749" lon="-0.888">
        <ele>175.1</ele>
        <time>2020-11-12T10:54:02Z</time>
      </trkpt>
      <trkpt lat="48.83749" lon="-0.88791">
        <ele>175.4</ele>
        <time>2020-11-12T10:54:02Z</time>
      </trkpt>
      <trkpt lat="48.83749" lon="-0.88756">
        <ele>178.3</ele>
        <time>2020-11-12T10:54:02Z</time>
      </trkpt>
      <trkpt lat="48.83747" lon="-0.88706">
        <ele>183</ele>
        <time>2020-11-12T10:54:02Z</time>
      </trkpt>
      <trkpt lat="48.83742" lon="-0.88645">
        <ele>187.2</ele>
        <time>2020-11-12T10:54:02Z</time>
      </trkpt>
      <trkpt lat="48.83741" lon="-0.88619">
        <ele>188.3</ele>
        <time>2020-11-12T10:54:02Z</time>
      </trkpt>
      <trkpt lat="48.8374" lon="-0.88594">
        <ele>189.9</ele>
        <time>2020-11-12T10:54:02Z</time>
      </trkpt>
      <trkpt lat="48.8374" lon="-0.88594">
        <ele>189.9</ele>
        <time>2020-11-12T10:54:02Z</time>
      </trkpt>
      <trkpt lat="48.8374" lon="-0.88593">
        <ele>190</ele>
        <time>2020-11-12T10:54:02Z</time>
      </trkpt>
      <trkpt lat="48.83742" lon="-0.88583">
        <ele>190.7</ele>
        <time>2020-11-12T10:54:02Z</time>
      </trkpt>
      <trkpt lat="48.83745" lon="-0.88578">
        <ele>191</ele>
        <time>2020-11-12T10:54:02Z</time>
      </trkpt>
      <trkpt lat="48.8376" lon="-0.88639">
        <ele>190.9</ele>
        <time>2020-11-12T10:54:02Z</time>
      </trkpt>
      <trkpt lat="48.83764" lon="-0.88635">
        <ele>191.9</ele>
        <time>2020-11-12T10:54:02Z</time>
      </trkpt>
      <trkpt lat="48.83792" lon="-0.88578">
        <ele>197</ele>
        <time>2020-11-12T10:54:02Z</time>
      </trkpt>
      <trkpt lat="48.83797" lon="-0.88567">
        <ele>197.1</ele>
        <time>2020-11-12T10:54:02Z</time>
      </trkpt>
      <trkpt lat="48.83802" lon="-0.88555">
        <ele>196.9</ele>
        <time>2020-11-12T10:54:02Z</time>
      </trkpt>
      <trkpt lat="48.83839" lon="-0.88458">
        <ele>198.2</ele>
        <time>2020-11-12T10:54:02Z</time>
      </trkpt>
      <trkpt lat="48.83838" lon="-0.88424">
        <ele>198.8</ele>
        <time>2020-11-12T10:54:02Z</time>
      </trkpt>
      <trkpt lat="48.8384" lon="-0.88416">
        <ele>199</ele>
        <time>2020-11-12T10:54:02Z</time>
      </trkpt>
      <trkpt lat="48.8384" lon="-0.88416">
        <ele>199</ele>
        <time>2020-11-12T10:54:02Z</time>
      </trkpt>
      <trkpt lat="48.8384" lon="-0.88416">
        <ele>199</ele>
        <time>2020-11-12T10:54:02Z</time>
      </trkpt>
      <trkpt lat="48.83845" lon="-0.88409">
        <ele>199.3</ele>
        <time>2020-11-12T10:54:02Z</time>
      </trkpt>
      <trkpt lat="48.8385" lon="-0.88418">
        <ele>199</ele>
        <time>2020-11-12T10:54:02Z</time>
      </trkpt>
      <trkpt lat="48.83856" lon="-0.88426">
        <ele>198.9</ele>
        <time>2020-11-12T10:54:02Z</time>
      </trkpt>
      <trkpt lat="48.83857" lon="-0.88444">
        <ele>198.8</ele>
        <time>2020-11-12T10:54:02Z</time>
      </trkpt>
      <trkpt lat="48.83857" lon="-0.88554">
        <ele>199.9</ele>
        <time>2020-11-12T10:54:02Z</time>
      </trkpt>
      <trkpt lat="48.83858" lon="-0.88595">
        <ele>198.6</ele>
        <time>2020-11-12T10:54:02Z</time>
      </trkpt>
      <trkpt lat="48.83868" lon="-0.8871">
        <ele>191.9</ele>
        <time>2020-11-12T10:54:02Z</time>
      </trkpt>
      <trkpt lat="48.83872" lon="-0.88747">
        <ele>189.2</ele>
        <time>2020-11-12T10:54:02Z</time>
      </trkpt>
      <trkpt lat="48.83874" lon="-0.88776">
        <ele>186.7</ele>
        <time>2020-11-12T10:54:02Z</time>
      </trkpt>
      <trkpt lat="48.83874" lon="-0.88776">
        <ele>186.7</ele>
        <time>2020-11-12T10:54:02Z</time>
      </trkpt>
      <trkpt lat="48.83875" lon="-0.88782">
        <ele>186.1</ele>
        <time>2020-11-12T10:54:02Z</time>
      </trkpt>
      <trkpt lat="48.8391" lon="-0.88775">
        <ele>184.1</ele>
        <time>2020-11-12T10:54:02Z</time>
      </trkpt>
      <trkpt lat="48.8396" lon="-0.88762">
        <ele>180.8</ele>
        <time>2020-11-12T10:54:02Z</time>
      </trkpt>
      <trkpt lat="48.83969" lon="-0.88756">
        <ele>180.7</ele>
        <time>2020-11-12T10:54:02Z</time>
      </trkpt>
      <trkpt lat="48.83971" lon="-0.88769">
        <ele>179.1</ele>
        <time>2020-11-12T10:54:02Z</time>
      </trkpt>
      <trkpt lat="48.83973" lon="-0.88792">
        <ele>177.4</ele>
        <time>2020-11-12T10:54:02Z</time>
      </trkpt>
      <trkpt lat="48.83972" lon="-0.88799">
        <ele>177.2</ele>
        <time>2020-11-12T10:54:02Z</time>
      </trkpt>
      <trkpt lat="48.83972" lon="-0.88799">
        <ele>177.2</ele>
        <time>2020-11-12T10:54:02Z</time>
      </trkpt>
      <trkpt lat="48.83971" lon="-0.88803">
        <ele>177.1</ele>
        <time>2020-11-12T10:54:02Z</time>
      </trkpt>
      <trkpt lat="48.83952" lon="-0.88831">
        <ele>174</ele>
        <time>2020-11-12T10:54:02Z</time>
      </trkpt>
      <trkpt lat="48.83945" lon="-0.88847">
        <ele>173.9</ele>
        <time>2020-11-12T10:54:02Z</time>
      </trkpt>
      <trkpt lat="48.83948" lon="-0.88863">
        <ele>172.7</ele>
        <time>2020-11-12T10:54:02Z</time>
      </trkpt>
      <trkpt lat="48.83949" lon="-0.8887">
        <ele>172.4</ele>
        <time>2020-11-12T10:54:02Z</time>
      </trkpt>
      <trkpt lat="48.83958" lon="-0.88864">
        <ele>172</ele>
        <time>2020-11-12T10:54:02Z</time>
      </trkpt>
      <trkpt lat="48.83961" lon="-0.88885">
        <ele>171.5</ele>
        <time>2020-11-12T10:54:02Z</time>
      </trkpt>
      <trkpt lat="48.83967" lon="-0.8894">
        <ele>172</ele>
        <time>2020-11-12T10:54:02Z</time>
      </trkpt>
      <trkpt lat="48.83968" lon="-0.88951">
        <ele>172</ele>
        <time>2020-11-12T10:54:02Z</time>
      </trkpt>
      <trkpt lat="48.8397" lon="-0.88979">
        <ele>172.1</ele>
        <time>2020-11-12T10:54:02Z</time>
      </trkpt>
      <trkpt lat="48.83974" lon="-0.89017">
        <ele>172.5</ele>
        <time>2020-11-12T10:54:02Z</time>
      </trkpt>
      <trkpt lat="48.83977" lon="-0.89055">
        <ele>172.6</ele>
        <time>2020-11-12T10:54:02Z</time>
      </trkpt>
      <trkpt lat="48.83987" lon="-0.8906">
        <ele>172</ele>
        <time>2020-11-12T10:54:02Z</time>
      </trkpt>
      <trkpt lat="48.83992" lon="-0.89063">
        <ele>171.6</ele>
        <time>2020-11-12T10:54:02Z</time>
      </trkpt>
      <trkpt lat="48.84004" lon="-0.89075">
        <ele>170.7</ele>
        <time>2020-11-12T10:54:02Z</time>
      </trkpt>
      <trkpt lat="48.84004" lon="-0.89075">
        <ele>170.7</ele>
        <time>2020-11-12T10:54:02Z</time>
      </trkpt>
      <trkpt lat="48.84005" lon="-0.89076">
        <ele>170.7</ele>
        <time>2020-11-12T10:54:02Z</time>
      </trkpt>
      <trkpt lat="48.8402" lon="-0.8908">
        <ele>169.6</ele>
        <time>2020-11-12T10:54:02Z</time>
      </trkpt>
      <trkpt lat="48.84063" lon="-0.89072">
        <ele>166.7</ele>
        <time>2020-11-12T10:54:02Z</time>
      </trkpt>
      <trkpt lat="48.84096" lon="-0.89058">
        <ele>164</ele>
        <time>2020-11-12T10:54:02Z</time>
      </trkpt>
      <trkpt lat="48.84118" lon="-0.89045">
        <ele>162.1</ele>
        <time>2020-11-12T10:54:02Z</time>
      </trkpt>
      <trkpt lat="48.84124" lon="-0.89041">
        <ele>161.7</ele>
        <time>2020-11-12T10:54:02Z</time>
      </trkpt>
      <trkpt lat="48.84148" lon="-0.89021">
        <ele>159.2</ele>
        <time>2020-11-12T10:54:02Z</time>
      </trkpt>
      <trkpt lat="48.84166" lon="-0.89002">
        <ele>156.3</ele>
        <time>2020-11-12T10:54:02Z</time>
      </trkpt>
      <trkpt lat="48.84204" lon="-0.88958">
        <ele>152.9</ele>
        <time>2020-11-12T10:54:02Z</time>
      </trkpt>
      <trkpt lat="48.84234" lon="-0.88919">
        <ele>148.7</ele>
        <time>2020-11-12T10:54:02Z</time>
      </trkpt>
      <trkpt lat="48.84241" lon="-0.8891">
        <ele>147.9</ele>
        <time>2020-11-12T10:54:02Z</time>
      </trkpt>
      <trkpt lat="48.84242" lon="-0.88912">
        <ele>147.8</ele>
        <time>2020-11-12T10:54:02Z</time>
      </trkpt>
      <trkpt lat="48.84242" lon="-0.88912">
        <ele>147.8</ele>
        <time>2020-11-12T10:54:02Z</time>
      </trkpt>
      <trkpt lat="48.84241" lon="-0.8891">
        <ele>147.9</ele>
        <time>2020-11-12T10:54:02Z</time>
      </trkpt>
      <trkpt lat="48.84251" lon="-0.88901">
        <ele>146.9</ele>
        <time>2020-11-12T10:54:02Z</time>
      </trkpt>
      <trkpt lat="48.8437" lon="-0.88786">
        <ele>138.3</ele>
        <time>2020-11-12T10:54:02Z</time>
      </trkpt>
      <trkpt lat="48.84476" lon="-0.88702">
        <ele>132.4</ele>
        <time>2020-11-12T10:54:02Z</time>
      </trkpt>
      <trkpt lat="48.84521" lon="-0.88672">
        <ele>131.1</ele>
        <time>2020-11-12T10:54:02Z</time>
      </trkpt>
      <trkpt lat="48.84543" lon="-0.88655">
        <ele>129.4</ele>
        <time>2020-11-12T10:54:02Z</time>
      </trkpt>
      <trkpt lat="48.84568" lon="-0.88635">
        <ele>129.7</ele>
        <time>2020-11-12T10:54:02Z</time>
      </trkpt>
      <trkpt lat="48.846" lon="-0.88612">
        <ele>128.4</ele>
        <time>2020-11-12T10:54:02Z</time>
      </trkpt>
      <trkpt lat="48.8461" lon="-0.88604">
        <ele>126.6</ele>
        <time>2020-11-12T10:54:02Z</time>
      </trkpt>
      <trkpt lat="48.84617" lon="-0.88598">
        <ele>126.3</ele>
        <time>2020-11-12T10:54:02Z</time>
      </trkpt>
      <trkpt lat="48.84628" lon="-0.88585">
        <ele>126.3</ele>
        <time>2020-11-12T10:54:02Z</time>
      </trkpt>
      <trkpt lat="48.84642" lon="-0.88566">
        <ele>126.1</ele>
        <time>2020-11-12T10:54:02Z</time>
      </trkpt>
      <trkpt lat="48.84646" lon="-0.8856">
        <ele>126.2</ele>
        <time>2020-11-12T10:54:02Z</time>
      </trkpt>
      <trkpt lat="48.84655" lon="-0.88544">
        <ele>127.1</ele>
        <time>2020-11-12T10:54:02Z</time>
      </trkpt>
      <trkpt lat="48.84657" lon="-0.88548">
        <ele>126.9</ele>
        <time>2020-11-12T10:54:02Z</time>
      </trkpt>
      <trkpt lat="48.84657" lon="-0.88548">
        <ele>126.9</ele>
        <time>2020-11-12T10:54:02Z</time>
      </trkpt>
      <trkpt lat="48.8466" lon="-0.88553">
        <ele>126.8</ele>
        <time>2020-11-12T10:54:02Z</time>
      </trkpt>
      <trkpt lat="48.84661" lon="-0.88563">
        <ele>126.6</ele>
        <time>2020-11-12T10:54:02Z</time>
      </trkpt>
      <trkpt lat="48.84664" lon="-0.88585">
        <ele>126</ele>
        <time>2020-11-12T10:54:02Z</time>
      </trkpt>
      <trkpt lat="48.84665" lon="-0.88602">
        <ele>125.3</ele>
        <time>2020-11-12T10:54:02Z</time>
      </trkpt>
      <trkpt lat="48.84664" lon="-0.8861">
        <ele>125</ele>
        <time>2020-11-12T10:54:02Z</time>
      </trkpt>
      <trkpt lat="48.84662" lon="-0.88624">
        <ele>124.6</ele>
        <time>2020-11-12T10:54:02Z</time>
      </trkpt>
      <trkpt lat="48.84657" lon="-0.88638">
        <ele>124</ele>
        <time>2020-11-12T10:54:02Z</time>
      </trkpt>
      <trkpt lat="48.84646" lon="-0.88651">
        <ele>123.9</ele>
        <time>2020-11-12T10:54:02Z</time>
      </trkpt>
      <trkpt lat="48.84639" lon="-0.88659">
        <ele>124</ele>
        <time>2020-11-12T10:54:02Z</time>
      </trkpt>
      <trkpt lat="48.84644" lon="-0.88668">
        <ele>123.7</ele>
        <time>2020-11-12T10:54:02Z</time>
      </trkpt>
      <trkpt lat="48.84698" lon="-0.88753">
        <ele>119</ele>
        <time>2020-11-12T10:54:02Z</time>
      </trkpt>
      <trkpt lat="48.84702" lon="-0.8876">
        <ele>118.9</ele>
        <time>2020-11-12T10:54:02Z</time>
      </trkpt>
      <trkpt lat="48.8471" lon="-0.88771">
        <ele>118.6</ele>
        <time>2020-11-12T10:54:02Z</time>
      </trkpt>
      <trkpt lat="48.84703" lon="-0.88782">
        <ele>118.6</ele>
        <time>2020-11-12T10:54:02Z</time>
      </trkpt>
      <trkpt lat="48.84683" lon="-0.8882">
        <ele>117.5</ele>
        <time>2020-11-12T10:54:02Z</time>
      </trkpt>
      <trkpt lat="48.84669" lon="-0.88846">
        <ele>117</ele>
        <time>2020-11-12T10:54:02Z</time>
      </trkpt>
      <trkpt lat="48.84655" lon="-0.88882">
        <ele>116.3</ele>
        <time>2020-11-12T10:54:02Z</time>
      </trkpt>
      <trkpt lat="48.84647" lon="-0.88907">
        <ele>116</ele>
        <time>2020-11-12T10:54:02Z</time>
      </trkpt>
      <trkpt lat="48.84638" lon="-0.88943">
        <ele>116</ele>
        <time>2020-11-12T10:54:02Z</time>
      </trkpt>
      <trkpt lat="48.84627" lon="-0.89002">
        <ele>115.4</ele>
        <time>2020-11-12T10:54:02Z</time>
      </trkpt>
      <trkpt lat="48.84619" lon="-0.89066">
        <ele>114.6</ele>
        <time>2020-11-12T10:54:02Z</time>
      </trkpt>
      <trkpt lat="48.84619" lon="-0.89068">
        <ele>114.5</ele>
        <time>2020-11-12T10:54:02Z</time>
      </trkpt>
      <trkpt lat="48.84613" lon="-0.89096">
        <ele>114</ele>
        <time>2020-11-12T10:54:02Z</time>
      </trkpt>
      <trkpt lat="48.84607" lon="-0.89107">
        <ele>114.2</ele>
        <time>2020-11-12T10:54:02Z</time>
      </trkpt>
      <trkpt lat="48.84601" lon="-0.89119">
        <ele>114.4</ele>
        <time>2020-11-12T10:54:02Z</time>
      </trkpt>
      <trkpt lat="48.84589" lon="-0.89131">
        <ele>114.8</ele>
        <time>2020-11-12T10:54:02Z</time>
      </trkpt>
      <trkpt lat="48.84582" lon="-0.89145">
        <ele>115</ele>
        <time>2020-11-12T10:54:02Z</time>
      </trkpt>
      <trkpt lat="48.8458" lon="-0.89147">
        <ele>115.1</ele>
        <time>2020-11-12T10:54:02Z</time>
      </trkpt>
      <trkpt lat="48.84572" lon="-0.89156">
        <ele>115.4</ele>
        <time>2020-11-12T10:54:02Z</time>
      </trkpt>
      <trkpt lat="48.84528" lon="-0.89186">
        <ele>117.3</ele>
        <time>2020-11-12T10:54:02Z</time>
      </trkpt>
      <trkpt lat="48.84517" lon="-0.89194">
        <ele>117.8</ele>
        <time>2020-11-12T10:54:02Z</time>
      </trkpt>
      <trkpt lat="48.84516" lon="-0.89199">
        <ele>117.9</ele>
        <time>2020-11-12T10:54:02Z</time>
      </trkpt>
      <trkpt lat="48.84513" lon="-0.89248">
        <ele>119</ele>
        <time>2020-11-12T10:54:02Z</time>
      </trkpt>
      <trkpt lat="48.84513" lon="-0.89314">
        <ele>117.3</ele>
        <time>2020-11-12T10:54:02Z</time>
      </trkpt>
      <trkpt lat="48.84517" lon="-0.89344">
        <ele>117.1</ele>
        <time>2020-11-12T10:54:02Z</time>
      </trkpt>
      <trkpt lat="48.84517" lon="-0.89346">
        <ele>117</ele>
        <time>2020-11-12T10:54:02Z</time>
      </trkpt>
      <trkpt lat="48.84526" lon="-0.89388">
        <ele>115.3</ele>
        <time>2020-11-12T10:54:02Z</time>
      </trkpt>
      <trkpt lat="48.84534" lon="-0.89426">
        <ele>114.8</ele>
        <time>2020-11-12T10:54:02Z</time>
      </trkpt>
      <trkpt lat="48.84536" lon="-0.89454">
        <ele>114.8</ele>
        <time>2020-11-12T10:54:02Z</time>
      </trkpt>
      <trkpt lat="48.84537" lon="-0.89471">
        <ele>115</ele>
        <time>2020-11-12T10:54:02Z</time>
      </trkpt>
      <trkpt lat="48.8454" lon="-0.89475">
        <ele>114.8</ele>
        <time>2020-11-12T10:54:02Z</time>
      </trkpt>
      <trkpt lat="48.84544" lon="-0.89484">
        <ele>114.8</ele>
        <time>2020-11-12T10:54:02Z</time>
      </trkpt>
      <trkpt lat="48.84543" lon="-0.89498">
        <ele>115.4</ele>
        <time>2020-11-12T10:54:02Z</time>
      </trkpt>
      <trkpt lat="48.8454" lon="-0.89505">
        <ele>115.5</ele>
        <time>2020-11-12T10:54:02Z</time>
      </trkpt>
      <trkpt lat="48.84536" lon="-0.8951">
        <ele>115.6</ele>
        <time>2020-11-12T10:54:02Z</time>
      </trkpt>
      <trkpt lat="48.84533" lon="-0.89512">
        <ele>115.7</ele>
        <time>2020-11-12T10:54:02Z</time>
      </trkpt>
      <trkpt lat="48.8453" lon="-0.89513">
        <ele>115.9</ele>
        <time>2020-11-12T10:54:02Z</time>
      </trkpt>
      <trkpt lat="48.84526" lon="-0.89512">
        <ele>116.1</ele>
        <time>2020-11-12T10:54:02Z</time>
      </trkpt>
      <trkpt lat="48.84523" lon="-0.89511">
        <ele>116.3</ele>
        <time>2020-11-12T10:54:02Z</time>
      </trkpt>
      <trkpt lat="48.84517" lon="-0.8951">
        <ele>116.8</ele>
        <time>2020-11-12T10:54:02Z</time>
      </trkpt>
      <trkpt lat="48.84512" lon="-0.89513">
        <ele>117.2</ele>
        <time>2020-11-12T10:54:02Z</time>
      </trkpt>
      <trkpt lat="48.84512" lon="-0.89513">
        <ele>117.2</ele>
        <time>2020-11-12T10:54:02Z</time>
      </trkpt>
      <trkpt lat="48.8451" lon="-0.89514">
        <ele>117.3</ele>
        <time>2020-11-12T10:54:02Z</time>
      </trkpt>
      <trkpt lat="48.84509" lon="-0.89515">
        <ele>117.3</ele>
        <time>2020-11-12T10:54:02Z</time>
      </trkpt>
      <trkpt lat="48.84489" lon="-0.89533">
        <ele>119</ele>
        <time>2020-11-12T10:54:02Z</time>
      </trkpt>
      <trkpt lat="48.84487" lon="-0.89534">
        <ele>119.2</ele>
        <time>2020-11-12T10:54:02Z</time>
      </trkpt>
      <trkpt lat="48.84467" lon="-0.89557">
        <ele>121.2</ele>
        <time>2020-11-12T10:54:02Z</time>
      </trkpt>
      <trkpt lat="48.84463" lon="-0.8957">
        <ele>121.5</ele>
        <time>2020-11-12T10:54:02Z</time>
      </trkpt>
      <trkpt lat="48.84459" lon="-0.89591">
        <ele>121.6</ele>
        <time>2020-11-12T10:54:02Z</time>
      </trkpt>
      <trkpt lat="48.84456" lon="-0.89612">
        <ele>122.5</ele>
        <time>2020-11-12T10:54:02Z</time>
      </trkpt>
      <trkpt lat="48.84449" lon="-0.89637">
        <ele>123.2</ele>
        <time>2020-11-12T10:54:02Z</time>
      </trkpt>
      <trkpt lat="48.84423" lon="-0.89696">
        <ele>125.4</ele>
        <time>2020-11-12T10:54:02Z</time>
      </trkpt>
      <trkpt lat="48.84413" lon="-0.89722">
        <ele>127.6</ele>
        <time>2020-11-12T10:54:02Z</time>
      </trkpt>
      <trkpt lat="48.84401" lon="-0.89808">
        <ele>128.7</ele>
        <time>2020-11-12T10:54:02Z</time>
      </trkpt>
      <trkpt lat="48.84395" lon="-0.89824">
        <ele>130.8</ele>
        <time>2020-11-12T10:54:02Z</time>
      </trkpt>
      <trkpt lat="48.84384" lon="-0.89838">
        <ele>132.7</ele>
        <time>2020-11-12T10:54:02Z</time>
      </trkpt>
      <trkpt lat="48.84359" lon="-0.89855">
        <ele>134.2</ele>
        <time>2020-11-12T10:54:02Z</time>
      </trkpt>
      <trkpt lat="48.84345" lon="-0.89869">
        <ele>138.1</ele>
        <time>2020-11-12T10:54:02Z</time>
      </trkpt>
      <trkpt lat="48.84326" lon="-0.89906">
        <ele>140.3</ele>
        <time>2020-11-12T10:54:02Z</time>
      </trkpt>
      <trkpt lat="48.84314" lon="-0.89935">
        <ele>139.7</ele>
        <time>2020-11-12T10:54:02Z</time>
      </trkpt>
      <trkpt lat="48.84301" lon="-0.89949">
        <ele>139.4</ele>
        <time>2020-11-12T10:54:02Z</time>
      </trkpt>
      <trkpt lat="48.84286" lon="-0.89954">
        <ele>140.4</ele>
        <time>2020-11-12T10:54:02Z</time>
      </trkpt>
      <trkpt lat="48.8427" lon="-0.89949">
        <ele>141.6</ele>
        <time>2020-11-12T10:54:02Z</time>
      </trkpt>
      <trkpt lat="48.84258" lon="-0.89938">
        <ele>142.6</ele>
        <time>2020-11-12T10:54:02Z</time>
      </trkpt>
      <trkpt lat="48.84248" lon="-0.89925">
        <ele>144.3</ele>
        <time>2020-11-12T10:54:02Z</time>
      </trkpt>
      <trkpt lat="48.84243" lon="-0.89901">
        <ele>146.2</ele>
        <time>2020-11-12T10:54:02Z</time>
      </trkpt>
      <trkpt lat="48.84241" lon="-0.89875">
        <ele>147.8</ele>
        <time>2020-11-12T10:54:02Z</time>
      </trkpt>
      <trkpt lat="48.84245" lon="-0.89778">
        <ele>151.3</ele>
        <time>2020-11-12T10:54:02Z</time>
      </trkpt>
      <trkpt lat="48.84244" lon="-0.89749">
        <ele>152.2</ele>
        <time>2020-11-12T10:54:02Z</time>
      </trkpt>
      <trkpt lat="48.84238" lon="-0.89725">
        <ele>152.8</ele>
        <time>2020-11-12T10:54:02Z</time>
      </trkpt>
      <trkpt lat="48.84229" lon="-0.897">
        <ele>153.5</ele>
        <time>2020-11-12T10:54:02Z</time>
      </trkpt>
      <trkpt lat="48.84219" lon="-0.89689">
        <ele>154.1</ele>
        <time>2020-11-12T10:54:02Z</time>
      </trkpt>
      <trkpt lat="48.84182" lon="-0.89663">
        <ele>156.5</ele>
        <time>2020-11-12T10:54:02Z</time>
      </trkpt>
      <trkpt lat="48.84158" lon="-0.89646">
        <ele>158.1</ele>
        <time>2020-11-12T10:54:02Z</time>
      </trkpt>
      <trkpt lat="48.84151" lon="-0.89642">
        <ele>158.5</ele>
        <time>2020-11-12T10:54:02Z</time>
      </trkpt>
      <trkpt lat="48.84129" lon="-0.89628">
        <ele>160.1</ele>
        <time>2020-11-12T10:54:02Z</time>
      </trkpt>
      <trkpt lat="48.84117" lon="-0.8962">
        <ele>161.2</ele>
        <time>2020-11-12T10:54:02Z</time>
      </trkpt>
      <trkpt lat="48.84111" lon="-0.89615">
        <ele>161.9</ele>
        <time>2020-11-12T10:54:02Z</time>
      </trkpt>
      <trkpt lat="48.84107" lon="-0.89613">
        <ele>162.1</ele>
        <time>2020-11-12T10:54:02Z</time>
      </trkpt>
      <trkpt lat="48.84103" lon="-0.89611">
        <ele>162.3</ele>
        <time>2020-11-12T10:54:02Z</time>
      </trkpt>
      <trkpt lat="48.84097" lon="-0.89607">
        <ele>162.6</ele>
        <time>2020-11-12T10:54:02Z</time>
      </trkpt>
      <trkpt lat="48.84079" lon="-0.89594">
        <ele>163.9</ele>
        <time>2020-11-12T10:54:02Z</time>
      </trkpt>
      <trkpt lat="48.84062" lon="-0.89582">
        <ele>165.6</ele>
        <time>2020-11-12T10:54:02Z</time>
      </trkpt>
      <trkpt lat="48.84055" lon="-0.89578">
        <ele>166</ele>
        <time>2020-11-12T10:54:02Z</time>
      </trkpt>
      <trkpt lat="48.8404" lon="-0.8956">
        <ele>166.6</ele>
        <time>2020-11-12T10:54:02Z</time>
      </trkpt>
      <trkpt lat="48.8403" lon="-0.8954">
        <ele>167.5</ele>
        <time>2020-11-12T10:54:02Z</time>
      </trkpt>
      <trkpt lat="48.84021" lon="-0.89507">
        <ele>169</ele>
        <time>2020-11-12T10:54:02Z</time>
      </trkpt>
      <trkpt lat="48.84015" lon="-0.89469">
        <ele>170</ele>
        <time>2020-11-12T10:54:02Z</time>
      </trkpt>
      <trkpt lat="48.84006" lon="-0.89364">
        <ele>172.8</ele>
        <time>2020-11-12T10:54:02Z</time>
      </trkpt>
      <trkpt lat="48.84005" lon="-0.89353">
        <ele>172.9</ele>
        <time>2020-11-12T10:54:02Z</time>
      </trkpt>
      <trkpt lat="48.84003" lon="-0.8934">
        <ele>173</ele>
        <time>2020-11-12T10:54:02Z</time>
      </trkpt>
      <trkpt lat="48.84003" lon="-0.89325">
        <ele>173</ele>
        <time>2020-11-12T10:54:02Z</time>
      </trkpt>
      <trkpt lat="48.84002" lon="-0.89309">
        <ele>173.1</ele>
        <time>2020-11-12T10:54:02Z</time>
      </trkpt>
      <trkpt lat="48.83996" lon="-0.89249">
        <ele>173.1</ele>
        <time>2020-11-12T10:54:02Z</time>
      </trkpt>
      <trkpt lat="48.83992" lon="-0.89202">
        <ele>173.3</ele>
        <time>2020-11-12T10:54:02Z</time>
      </trkpt>
      <trkpt lat="48.83984" lon="-0.89116">
        <ele>172.7</ele>
        <time>2020-11-12T10:54:02Z</time>
      </trkpt>
      <trkpt lat="48.83984" lon="-0.89112">
        <ele>172.6</ele>
        <time>2020-11-12T10:54:02Z</time>
      </trkpt>
      <trkpt lat="48.83983" lon="-0.89103">
        <ele>172.5</ele>
        <time>2020-11-12T10:54:02Z</time>
      </trkpt>
      <trkpt lat="48.83982" lon="-0.89095">
        <ele>172.4</ele>
        <time>2020-11-12T10:54:02Z</time>
      </trkpt>
      <trkpt lat="48.83981" lon="-0.89086">
        <ele>172.4</ele>
        <time>2020-11-12T10:54:02Z</time>
      </trkpt>
      <trkpt lat="48.83981" lon="-0.89081">
        <ele>172.4</ele>
        <time>2020-11-12T10:54:02Z</time>
      </trkpt>
      <trkpt lat="48.83981" lon="-0.89081">
        <ele>172.4</ele>
        <time>2020-11-12T10:54:02Z</time>
      </trkpt>
      <trkpt lat="48.83977" lon="-0.89055">
        <ele>172.6</ele>
        <time>2020-11-12T10:54:02Z</time>
      </trkpt>
      <trkpt lat="48.83987" lon="-0.8906">
        <ele>172</ele>
        <time>2020-11-12T10:54:02Z</time>
      </trkpt>
      <trkpt lat="48.83992" lon="-0.89063">
        <ele>171.6</ele>
        <time>2020-11-12T10:54:02Z</time>
      </trkpt>
      <trkpt lat="48.84005" lon="-0.89076">
        <ele>170.7</ele>
        <time>2020-11-12T10:54:02Z</time>
      </trkpt>
      <trkpt lat="48.8402" lon="-0.8908">
        <ele>169.6</ele>
        <time>2020-11-12T10:54:02Z</time>
      </trkpt>
      <trkpt lat="48.84063" lon="-0.89072">
        <ele>166.7</ele>
        <time>2020-11-12T10:54:02Z</time>
      </trkpt>
      <trkpt lat="48.84096" lon="-0.89058">
        <ele>164</ele>
        <time>2020-11-12T10:54:02Z</time>
      </trkpt>
      <trkpt lat="48.84118" lon="-0.89045">
        <ele>162.1</ele>
        <time>2020-11-12T10:54:02Z</time>
      </trkpt>
      <trkpt lat="48.84124" lon="-0.89041">
        <ele>161.7</ele>
        <time>2020-11-12T10:54:02Z</time>
      </trkpt>
      <trkpt lat="48.84148" lon="-0.89021">
        <ele>159.2</ele>
        <time>2020-11-12T10:54:02Z</time>
      </trkpt>
      <trkpt lat="48.84166" lon="-0.89002">
        <ele>156.3</ele>
        <time>2020-11-12T10:54:02Z</time>
      </trkpt>
      <trkpt lat="48.84204" lon="-0.88958">
        <ele>152.9</ele>
        <time>2020-11-12T10:54:02Z</time>
      </trkpt>
      <trkpt lat="48.84234" lon="-0.88919">
        <ele>148.7</ele>
        <time>2020-11-12T10:54:02Z</time>
      </trkpt>
      <trkpt lat="48.84241" lon="-0.8891">
        <ele>147.9</ele>
        <time>2020-11-12T10:54:02Z</time>
      </trkpt>
      <trkpt lat="48.84251" lon="-0.88901">
        <ele>146.9</ele>
        <time>2020-11-12T10:54:02Z</time>
      </trkpt>
      <trkpt lat="48.8437" lon="-0.88786">
        <ele>138.3</ele>
        <time>2020-11-12T10:54:02Z</time>
      </trkpt>
      <trkpt lat="48.84476" lon="-0.88702">
        <ele>132.4</ele>
        <time>2020-11-12T10:54:02Z</time>
      </trkpt>
      <trkpt lat="48.84521" lon="-0.88672">
        <ele>131.1</ele>
        <time>2020-11-12T10:54:02Z</time>
      </trkpt>
      <trkpt lat="48.84543" lon="-0.88655">
        <ele>129.4</ele>
        <time>2020-11-12T10:54:02Z</time>
      </trkpt>
      <trkpt lat="48.84538" lon="-0.88638">
        <ele>129.9</ele>
        <time>2020-11-12T10:54:02Z</time>
      </trkpt>
      <trkpt lat="48.84538" lon="-0.88638">
        <ele>129.9</ele>
        <time>2020-11-12T10:54:02Z</time>
      </trkpt>
      <trkpt lat="48.84536" lon="-0.88629">
        <ele>130.6</ele>
        <time>2020-11-12T10:54:02Z</time>
      </trkpt>
      <trkpt lat="48.84535" lon="-0.88619">
        <ele>131</ele>
        <time>2020-11-12T10:54:02Z</time>
      </trkpt>
      <trkpt lat="48.84536" lon="-0.88608">
        <ele>131.7</ele>
        <time>2020-11-12T10:54:02Z</time>
      </trkpt>
      <trkpt lat="48.8454" lon="-0.88598">
        <ele>132.8</ele>
        <time>2020-11-12T10:54:02Z</time>
      </trkpt>
      <trkpt lat="48.84556" lon="-0.88574">
        <ele>132</ele>
        <time>2020-11-12T10:54:02Z</time>
      </trkpt>
      <trkpt lat="48.84575" lon="-0.88551">
        <ele>132.8</ele>
        <time>2020-11-12T10:54:02Z</time>
      </trkpt>
      <trkpt lat="48.84582" lon="-0.88536">
        <ele>132.8</ele>
        <time>2020-11-12T10:54:02Z</time>
      </trkpt>
      <trkpt lat="48.84583" lon="-0.88529">
        <ele>133</ele>
        <time>2020-11-12T10:54:02Z</time>
      </trkpt>
      <trkpt lat="48.84584" lon="-0.88522">
        <ele>133.2</ele>
        <time>2020-11-12T10:54:02Z</time>
      </trkpt>
      <trkpt lat="48.84583" lon="-0.88507">
        <ele>133.8</ele>
        <time>2020-11-12T10:54:02Z</time>
      </trkpt>
      <trkpt lat="48.84581" lon="-0.88492">
        <ele>134.4</ele>
        <time>2020-11-12T10:54:02Z</time>
      </trkpt>
      <trkpt lat="48.84577" lon="-0.8848">
        <ele>135</ele>
        <time>2020-11-12T10:54:02Z</time>
      </trkpt>
      <trkpt lat="48.84575" lon="-0.88483">
        <ele>135</ele>
        <time>2020-11-12T10:54:02Z</time>
      </trkpt>
      <trkpt lat="48.84569" lon="-0.88487">
        <ele>135.3</ele>
        <time>2020-11-12T10:54:02Z</time>
      </trkpt>
      <trkpt lat="48.84566" lon="-0.88487">
        <ele>135.5</ele>
        <time>2020-11-12T10:54:02Z</time>
      </trkpt>
      <trkpt lat="48.84554" lon="-0.88494">
        <ele>136.1</ele>
        <time>2020-11-12T10:54:02Z</time>
      </trkpt>
      <trkpt lat="48.84545" lon="-0.885">
        <ele>136.8</ele>
        <time>2020-11-12T10:54:02Z</time>
      </trkpt>
      <trkpt lat="48.84481" lon="-0.88538">
        <ele>141.4</ele>
        <time>2020-11-12T10:54:02Z</time>
      </trkpt>
      <trkpt lat="48.84471" lon="-0.88544">
        <ele>142.1</ele>
        <time>2020-11-12T10:54:02Z</time>
      </trkpt>
      <trkpt lat="48.84435" lon="-0.88566">
        <ele>143.9</ele>
        <time>2020-11-12T10:54:02Z</time>
      </trkpt>
      <trkpt lat="48.84352" lon="-0.88617">
        <ele>150</ele>
        <time>2020-11-12T10:54:02Z</time>
      </trkpt>
      <trkpt lat="48.84337" lon="-0.88626">
        <ele>151.2</ele>
        <time>2020-11-12T10:54:02Z</time>
      </trkpt>
      <trkpt lat="48.84305" lon="-0.88647">
        <ele>152.8</ele>
        <time>2020-11-12T10:54:02Z</time>
      </trkpt>
      <trkpt lat="48.84297" lon="-0.88652">
        <ele>153.3</ele>
        <time>2020-11-12T10:54:02Z</time>
      </trkpt>
      <trkpt lat="48.8429" lon="-0.88656">
        <ele>153.8</ele>
        <time>2020-11-12T10:54:02Z</time>
      </trkpt>
      <trkpt lat="48.84274" lon="-0.88666">
        <ele>154.5</ele>
        <time>2020-11-12T10:54:02Z</time>
      </trkpt>
      <trkpt lat="48.8426" lon="-0.88675">
        <ele>155.7</ele>
        <time>2020-11-12T10:54:02Z</time>
      </trkpt>
      <trkpt lat="48.84227" lon="-0.88695">
        <ele>157.7</ele>
        <time>2020-11-12T10:54:02Z</time>
      </trkpt>
      <trkpt lat="48.84202" lon="-0.88711">
        <ele>159</ele>
        <time>2020-11-12T10:54:02Z</time>
      </trkpt>
      <trkpt lat="48.84171" lon="-0.8873">
        <ele>161.9</ele>
        <time>2020-11-12T10:54:02Z</time>
      </trkpt>
      <trkpt lat="48.8415" lon="-0.88743">
        <ele>163</ele>
        <time>2020-11-12T10:54:02Z</time>
      </trkpt>
      <trkpt lat="48.84142" lon="-0.88748">
        <ele>163.1</ele>
        <time>2020-11-12T10:54:02Z</time>
      </trkpt>
      <trkpt lat="48.84131" lon="-0.88755">
        <ele>163.9</ele>
        <time>2020-11-12T10:54:02Z</time>
      </trkpt>
      <trkpt lat="48.84109" lon="-0.88768">
        <ele>165</ele>
        <time>2020-11-12T10:54:02Z</time>
      </trkpt>
      <trkpt lat="48.84058" lon="-0.88801">
        <ele>166</ele>
        <time>2020-11-12T10:54:02Z</time>
      </trkpt>
      <trkpt lat="48.84008" lon="-0.88834">
        <ele>169.4</ele>
        <time>2020-11-12T10:54:02Z</time>
      </trkpt>
      <trkpt lat="48.83958" lon="-0.88864">
        <ele>172</ele>
        <time>2020-11-12T10:54:02Z</time>
      </trkpt>
      <trkpt lat="48.83949" lon="-0.8887">
        <ele>172.4</ele>
        <time>2020-11-12T10:54:02Z</time>
      </trkpt>
      <trkpt lat="48.83941" lon="-0.88875">
        <ele>172.7</ele>
        <time>2020-11-12T10:54:02Z</time>
      </trkpt>
      <trkpt lat="48.83897" lon="-0.88901">
        <ele>175</ele>
        <time>2020-11-12T10:54:02Z</time>
      </trkpt>
      <trkpt lat="48.83873" lon="-0.88917">
        <ele>175.4</ele>
        <time>2020-11-12T10:54:02Z</time>
      </trkpt>
      <trkpt lat="48.83864" lon="-0.88923">
        <ele>175.3</ele>
        <time>2020-11-12T10:54:02Z</time>
      </trkpt>
      <trkpt lat="48.83865" lon="-0.88928">
        <ele>175.5</ele>
        <time>2020-11-12T10:54:02Z</time>
      </trkpt>
      <trkpt lat="48.83865" lon="-0.88928">
        <ele>175.5</ele>
        <time>2020-11-12T10:54:02Z</time>
      </trkpt>
      <trkpt lat="48.83866" lon="-0.88932">
        <ele>175.6</ele>
        <time>2020-11-12T10:54:02Z</time>
      </trkpt>
      <trkpt lat="48.83865" lon="-0.88939">
        <ele>175.8</ele>
        <time>2020-11-12T10:54:02Z</time>
      </trkpt>
      <trkpt lat="48.83863" lon="-0.88946">
        <ele>176</ele>
        <time>2020-11-12T10:54:02Z</time>
      </trkpt>
      <trkpt lat="48.83857" lon="-0.88953">
        <ele>175.9</ele>
        <time>2020-11-12T10:54:02Z</time>
      </trkpt>
      <trkpt lat="48.83853" lon="-0.88967">
        <ele>175.9</ele>
        <time>2020-11-12T10:54:02Z</time>
      </trkpt>
      <trkpt lat="48.83846" lon="-0.88997">
        <ele>176.4</ele>
        <time>2020-11-12T10:54:02Z</time>
      </trkpt>
      <trkpt lat="48.83845" lon="-0.89002">
        <ele>176.4</ele>
        <time>2020-11-12T10:54:02Z</time>
      </trkpt>
      <trkpt lat="48.83837" lon="-0.89019">
        <ele>176.1</ele>
        <time>2020-11-12T10:54:02Z</time>
      </trkpt>
      <trkpt lat="48.83823" lon="-0.89031">
        <ele>175.7</ele>
        <time>2020-11-12T10:54:02Z</time>
      </trkpt>
      <trkpt lat="48.83818" lon="-0.89057">
        <ele>176</ele>
        <time>2020-11-12T10:54:02Z</time>
      </trkpt>
      <trkpt lat="48.83793" lon="-0.89045">
        <ele>174.1</ele>
        <time>2020-11-12T10:54:02Z</time>
      </trkpt>
      <trkpt lat="48.8377" lon="-0.89038">
        <ele>172.2</ele>
        <time>2020-11-12T10:54:02Z</time>
      </trkpt>
      <trkpt lat="48.83764" lon="-0.89058">
        <ele>172.1</ele>
        <time>2020-11-12T10:54:02Z</time>
      </trkpt>
      <trkpt lat="48.8375" lon="-0.89103">
        <ele>172.7</ele>
        <time>2020-11-12T10:54:02Z</time>
      </trkpt>
      <trkpt lat="48.83737" lon="-0.89145">
        <ele>173.1</ele>
        <time>2020-11-12T10:54:02Z</time>
      </trkpt>
      <trkpt lat="48.83737" lon="-0.89145">
        <ele>173.1</ele>
        <time>2020-11-12T10:54:02Z</time>
      </trkpt>
      <trkpt lat="48.83737" lon="-0.89148">
        <ele>173.2</ele>
        <time>2020-11-12T10:54:02Z</time>
      </trkpt>
      <trkpt lat="48.83727" lon="-0.89178">
        <ele>173.5</ele>
        <time>2020-11-12T10:54:02Z</time>
      </trkpt>
      <trkpt lat="48.83726" lon="-0.89195">
        <ele>174</ele>
        <time>2020-11-12T10:54:02Z</time>
      </trkpt>
      <trkpt lat="48.83733" lon="-0.89197">
        <ele>174</ele>
        <time>2020-11-12T10:54:02Z</time>
      </trkpt>
      <trkpt lat="48.83776" lon="-0.89218">
        <ele>177.5</ele>
        <time>2020-11-12T10:54:02Z</time>
      </trkpt>
      <trkpt lat="48.83798" lon="-0.89231">
        <ele>179.5</ele>
        <time>2020-11-12T10:54:02Z</time>
      </trkpt>
      <trkpt lat="48.83821" lon="-0.89244">
        <ele>180.6</ele>
        <time>2020-11-12T10:54:02Z</time>
      </trkpt>
      <trkpt lat="48.83858" lon="-0.89265">
        <ele>181.9</ele>
        <time>2020-11-12T10:54:02Z</time>
      </trkpt>
      <trkpt lat="48.8387" lon="-0.89272">
        <ele>181.7</ele>
        <time>2020-11-12T10:54:02Z</time>
      </trkpt>
      <trkpt lat="48.83873" lon="-0.89274">
        <ele>181.6</ele>
        <time>2020-11-12T10:54:02Z</time>
      </trkpt>
      <trkpt lat="48.83878" lon="-0.89276">
        <ele>181.4</ele>
        <time>2020-11-12T10:54:02Z</time>
      </trkpt>
      <trkpt lat="48.83881" lon="-0.89278">
        <ele>181.3</ele>
        <time>2020-11-12T10:54:02Z</time>
      </trkpt>
      <trkpt lat="48.83889" lon="-0.89282">
        <ele>181</ele>
        <time>2020-11-12T10:54:02Z</time>
      </trkpt>
      <trkpt lat="48.83909" lon="-0.89293">
        <ele>179.6</ele>
        <time>2020-11-12T10:54:02Z</time>
      </trkpt>
      <trkpt lat="48.83922" lon="-0.893">
        <ele>178.7</ele>
        <time>2020-11-12T10:54:02Z</time>
      </trkpt>
      <trkpt lat="48.83926" lon="-0.89303">
        <ele>178.3</ele>
        <time>2020-11-12T10:54:02Z</time>
      </trkpt>
      <trkpt lat="48.8393" lon="-0.89305">
        <ele>178</ele>
        <time>2020-11-12T10:54:02Z</time>
      </trkpt>
      <trkpt lat="48.83935" lon="-0.89308">
        <ele>177.6</ele>
        <time>2020-11-12T10:54:02Z</time>
      </trkpt>
      <trkpt lat="48.83944" lon="-0.89313">
        <ele>176.8</ele>
        <time>2020-11-12T10:54:02Z</time>
      </trkpt>
      <trkpt lat="48.84001" lon="-0.8934">
        <ele>173</ele>
        <time>2020-11-12T10:54:02Z</time>
      </trkpt>
      <trkpt lat="48.84001" lon="-0.8934">
        <ele>173</ele>
        <time>2020-11-12T10:54:02Z</time>
      </trkpt>
      <trkpt lat="48.84001" lon="-0.8934">
        <ele>173</ele>
        <time>2020-11-12T10:54:02Z</time>
      </trkpt>
      <trkpt lat="48.84003" lon="-0.8934">
        <ele>173</ele>
        <time>2020-11-12T10:54:02Z</time>
      </trkpt>
      <trkpt lat="48.84005" lon="-0.89353">
        <ele>172.9</ele>
        <time>2020-11-12T10:54:02Z</time>
      </trkpt>
      <trkpt lat="48.84006" lon="-0.89364">
        <ele>172.8</ele>
        <time>2020-11-12T10:54:02Z</time>
      </trkpt>
      <trkpt lat="48.84015" lon="-0.89469">
        <ele>170</ele>
        <time>2020-11-12T10:54:02Z</time>
      </trkpt>
      <trkpt lat="48.84021" lon="-0.89507">
        <ele>169</ele>
        <time>2020-11-12T10:54:02Z</time>
      </trkpt>
      <trkpt lat="48.8403" lon="-0.8954">
        <ele>167.5</ele>
        <time>2020-11-12T10:54:02Z</time>
      </trkpt>
      <trkpt lat="48.8404" lon="-0.8956">
        <ele>166.6</ele>
        <time>2020-11-12T10:54:02Z</time>
      </trkpt>
      <trkpt lat="48.84055" lon="-0.89578">
        <ele>166</ele>
        <time>2020-11-12T10:54:02Z</time>
      </trkpt>
      <trkpt lat="48.84062" lon="-0.89582">
        <ele>165.6</ele>
        <time>2020-11-12T10:54:02Z</time>
      </trkpt>
      <trkpt lat="48.84079" lon="-0.89594">
        <ele>163.9</ele>
        <time>2020-11-12T10:54:02Z</time>
      </trkpt>
      <trkpt lat="48.84097" lon="-0.89607">
        <ele>162.6</ele>
        <time>2020-11-12T10:54:02Z</time>
      </trkpt>
      <trkpt lat="48.84103" lon="-0.89611">
        <ele>162.3</ele>
        <time>2020-11-12T10:54:02Z</time>
      </trkpt>
      <trkpt lat="48.84107" lon="-0.89613">
        <ele>162.1</ele>
        <time>2020-11-12T10:54:02Z</time>
      </trkpt>
      <trkpt lat="48.84111" lon="-0.89615">
        <ele>161.9</ele>
        <time>2020-11-12T10:54:02Z</time>
      </trkpt>
      <trkpt lat="48.84117" lon="-0.8962">
        <ele>161.2</ele>
        <time>2020-11-12T10:54:02Z</time>
      </trkpt>
      <trkpt lat="48.84129" lon="-0.89628">
        <ele>160.1</ele>
        <time>2020-11-12T10:54:02Z</time>
      </trkpt>
      <trkpt lat="48.84151" lon="-0.89642">
        <ele>158.5</ele>
        <time>2020-11-12T10:54:02Z</time>
      </trkpt>
      <trkpt lat="48.84158" lon="-0.89646">
        <ele>158.1</ele>
        <time>2020-11-12T10:54:02Z</time>
      </trkpt>
      <trkpt lat="48.84182" lon="-0.89663">
        <ele>156.5</ele>
        <time>2020-11-12T10:54:02Z</time>
      </trkpt>
      <trkpt lat="48.84219" lon="-0.89689">
        <ele>154.1</ele>
        <time>2020-11-12T10:54:02Z</time>
      </trkpt>
      <trkpt lat="48.84229" lon="-0.897">
        <ele>153.5</ele>
        <time>2020-11-12T10:54:02Z</time>
      </trkpt>
      <trkpt lat="48.84238" lon="-0.89725">
        <ele>152.8</ele>
        <time>2020-11-12T10:54:02Z</time>
      </trkpt>
      <trkpt lat="48.84244" lon="-0.89749">
        <ele>152.2</ele>
        <time>2020-11-12T10:54:02Z</time>
      </trkpt>
      <trkpt lat="48.84245" lon="-0.89778">
        <ele>151.3</ele>
        <time>2020-11-12T10:54:02Z</time>
      </trkpt>
      <trkpt lat="48.84241" lon="-0.89875">
        <ele>147.8</ele>
        <time>2020-11-12T10:54:02Z</time>
      </trkpt>
      <trkpt lat="48.84243" lon="-0.89901">
        <ele>146.2</ele>
        <time>2020-11-12T10:54:02Z</time>
      </trkpt>
      <trkpt lat="48.84248" lon="-0.89925">
        <ele>144.3</ele>
        <time>2020-11-12T10:54:02Z</time>
      </trkpt>
      <trkpt lat="48.84258" lon="-0.89938">
        <ele>142.6</ele>
        <time>2020-11-12T10:54:02Z</time>
      </trkpt>
      <trkpt lat="48.8427" lon="-0.89949">
        <ele>141.6</ele>
        <time>2020-11-12T10:54:02Z</time>
      </trkpt>
      <trkpt lat="48.84286" lon="-0.89954">
        <ele>140.4</ele>
        <time>2020-11-12T10:54:02Z</time>
      </trkpt>
      <trkpt lat="48.84282" lon="-0.89961">
        <ele>140.2</ele>
        <time>2020-11-12T10:54:02Z</time>
      </trkpt>
      <trkpt lat="48.84281" lon="-0.89964">
        <ele>140.2</ele>
        <time>2020-11-12T10:54:02Z</time>
      </trkpt>
      <trkpt lat="48.84275" lon="-0.89966">
        <ele>140.2</ele>
        <time>2020-11-12T10:54:02Z</time>
      </trkpt>
      <trkpt lat="48.84273" lon="-0.89967">
        <ele>140</ele>
        <time>2020-11-12T10:54:02Z</time>
      </trkpt>
      <trkpt lat="48.84273" lon="-0.89967">
        <ele>140</ele>
        <time>2020-11-12T10:54:02Z</time>
      </trkpt>
      <trkpt lat="48.84269" lon="-0.89967">
        <ele>139.6</ele>
        <time>2020-11-12T10:54:02Z</time>
      </trkpt>
      <trkpt lat="48.84253" lon="-0.89958">
        <ele>139.7</ele>
        <time>2020-11-12T10:54:02Z</time>
      </trkpt>
      <trkpt lat="48.84238" lon="-0.89956">
        <ele>139.2</ele>
        <time>2020-11-12T10:54:02Z</time>
      </trkpt>
      <trkpt lat="48.84226" lon="-0.89956">
        <ele>138.4</ele>
        <time>2020-11-12T10:54:02Z</time>
      </trkpt>
      <trkpt lat="48.8421" lon="-0.89957">
        <ele>139.6</ele>
        <time>2020-11-12T10:54:02Z</time>
      </trkpt>
      <trkpt lat="48.84189" lon="-0.89965">
        <ele>140.4</ele>
        <time>2020-11-12T10:54:02Z</time>
      </trkpt>
      <trkpt lat="48.84168" lon="-0.89984">
        <ele>139</ele>
        <time>2020-11-12T10:54:02Z</time>
      </trkpt>
      <trkpt lat="48.84154" lon="-0.89999">
        <ele>137.4</ele>
        <time>2020-11-12T10:54:02Z</time>
      </trkpt>
      <trkpt lat="48.84112" lon="-0.90026">
        <ele>138.2</ele>
        <time>2020-11-12T10:54:02Z</time>
      </trkpt>
      <trkpt lat="48.84112" lon="-0.90026">
        <ele>138.2</ele>
        <time>2020-11-12T10:54:02Z</time>
      </trkpt>
      <trkpt lat="48.84108" lon="-0.90029">
        <ele>138.3</ele>
        <time>2020-11-12T10:54:02Z</time>
      </trkpt>
      <trkpt lat="48.84091" lon="-0.90046">
        <ele>138.1</ele>
        <time>2020-11-12T10:54:02Z</time>
      </trkpt>
      <trkpt lat="48.84061" lon="-0.9007">
        <ele>138.6</ele>
        <time>2020-11-12T10:54:02Z</time>
      </trkpt>
      <trkpt lat="48.84034" lon="-0.90102">
        <ele>138.4</ele>
        <time>2020-11-12T10:54:02Z</time>
      </trkpt>
      <trkpt lat="48.84001" lon="-0.90145">
        <ele>137.4</ele>
        <time>2020-11-12T10:54:02Z</time>
      </trkpt>
      <trkpt lat="48.8397" lon="-0.90168">
        <ele>136.8</ele>
        <time>2020-11-12T10:54:02Z</time>
      </trkpt>
      <trkpt lat="48.83929" lon="-0.90172">
        <ele>137.5</ele>
        <time>2020-11-12T10:54:02Z</time>
      </trkpt>
      <trkpt lat="48.83866" lon="-0.90191">
        <ele>137.8</ele>
        <time>2020-11-12T10:54:02Z</time>
      </trkpt>
      <trkpt lat="48.83824" lon="-0.90185">
        <ele>134.6</ele>
        <time>2020-11-12T10:54:02Z</time>
      </trkpt>
      <trkpt lat="48.83835" lon="-0.90178">
        <ele>137.7</ele>
        <time>2020-11-12T10:54:02Z</time>
      </trkpt>
      <trkpt lat="48.83846" lon="-0.90176">
        <ele>139.6</ele>
        <time>2020-11-12T10:54:02Z</time>
      </trkpt>
      <trkpt lat="48.83846" lon="-0.90176">
        <ele>139.6</ele>
        <time>2020-11-12T10:54:02Z</time>
      </trkpt>
      <trkpt lat="48.8386" lon="-0.90174">
        <ele>142.1</ele>
        <time>2020-11-12T10:54:02Z</time>
      </trkpt>
      <trkpt lat="48.83865" lon="-0.9017">
        <ele>143</ele>
        <time>2020-11-12T10:54:02Z</time>
      </trkpt>
      <trkpt lat="48.83865" lon="-0.90165">
        <ele>144.4</ele>
        <time>2020-11-12T10:54:02Z</time>
      </trkpt>
      <trkpt lat="48.83835" lon="-0.90151">
        <ele>144.8</ele>
        <time>2020-11-12T10:54:02Z</time>
      </trkpt>
      <trkpt lat="48.8383" lon="-0.90142">
        <ele>146.7</ele>
        <time>2020-11-12T10:54:02Z</time>
      </trkpt>
      <trkpt lat="48.83832" lon="-0.90136">
        <ele>149.1</ele>
        <time>2020-11-12T10:54:02Z</time>
      </trkpt>
      <trkpt lat="48.83838" lon="-0.90134">
        <ele>150.5</ele>
        <time>2020-11-12T10:54:02Z</time>
      </trkpt>
      <trkpt lat="48.83868" lon="-0.90137">
        <ele>153.3</ele>
        <time>2020-11-12T10:54:02Z</time>
      </trkpt>
      <trkpt lat="48.83883" lon="-0.90134">
        <ele>155.3</ele>
        <time>2020-11-12T10:54:02Z</time>
      </trkpt>
      <trkpt lat="48.83891" lon="-0.9013">
        <ele>156</ele>
        <time>2020-11-12T10:54:02Z</time>
      </trkpt>
      <trkpt lat="48.83935" lon="-0.90071">
        <ele>163.2</ele>
        <time>2020-11-12T10:54:02Z</time>
      </trkpt>
      <trkpt lat="48.83936" lon="-0.9006">
        <ele>165.9</ele>
        <time>2020-11-12T10:54:02Z</time>
      </trkpt>
      <trkpt lat="48.83935" lon="-0.90051">
        <ele>167.6</ele>
        <time>2020-11-12T10:54:02Z</time>
      </trkpt>
      <trkpt lat="48.83905" lon="-0.90039">
        <ele>171.2</ele>
        <time>2020-11-12T10:54:02Z</time>
      </trkpt>
      <trkpt lat="48.83887" lon="-0.89975">
        <ele>176.9</ele>
        <time>2020-11-12T10:54:02Z</time>
      </trkpt>
      <trkpt lat="48.83886" lon="-0.89966">
        <ele>177.1</ele>
        <time>2020-11-12T10:54:02Z</time>
      </trkpt>
      <trkpt lat="48.8388" lon="-0.89925">
        <ele>177.8</ele>
        <time>2020-11-12T10:54:02Z</time>
      </trkpt>
      <trkpt lat="48.83874" lon="-0.89853">
        <ele>176.9</ele>
        <time>2020-11-12T10:54:02Z</time>
      </trkpt>
      <trkpt lat="48.83857" lon="-0.89736">
        <ele>174.6</ele>
        <time>2020-11-12T10:54:02Z</time>
      </trkpt>
      <trkpt lat="48.83857" lon="-0.89736">
        <ele>174.6</ele>
        <time>2020-11-12T10:54:02Z</time>
      </trkpt>
      <trkpt lat="48.8385" lon="-0.89687">
        <ele>174.1</ele>
        <time>2020-11-12T10:54:02Z</time>
      </trkpt>
      <trkpt lat="48.8385" lon="-0.89672">
        <ele>173.6</ele>
        <time>2020-11-12T10:54:02Z</time>
      </trkpt>
      <trkpt lat="48.83927" lon="-0.89704">
        <ele>170.8</ele>
        <time>2020-11-12T10:54:02Z</time>
      </trkpt>
      <trkpt lat="48.83977" lon="-0.89727">
        <ele>168.8</ele>
        <time>2020-11-12T10:54:02Z</time>
      </trkpt>
      <trkpt lat="48.83991" lon="-0.89732">
        <ele>168.3</ele>
        <time>2020-11-12T10:54:02Z</time>
      </trkpt>
      <trkpt lat="48.83991" lon="-0.89732">
        <ele>168.3</ele>
        <time>2020-11-12T10:54:02Z</time>
      </trkpt>
      <trkpt lat="48.83992" lon="-0.89733">
        <ele>168.3</ele>
        <time>2020-11-12T10:54:02Z</time>
      </trkpt>
      <trkpt lat="48.84022" lon="-0.89749">
        <ele>166.4</ele>
        <time>2020-11-12T10:54:02Z</time>
      </trkpt>
      <trkpt lat="48.84019" lon="-0.89734">
        <ele>166.6</ele>
        <time>2020-11-12T10:54:02Z</time>
      </trkpt>
      <trkpt lat="48.84014" lon="-0.89714">
        <ele>166.8</ele>
        <time>2020-11-12T10:54:02Z</time>
      </trkpt>
      <trkpt lat="48.84012" lon="-0.897">
        <ele>166.7</ele>
        <time>2020-11-12T10:54:02Z</time>
      </trkpt>
      <trkpt lat="48.84011" lon="-0.89683">
        <ele>166.6</ele>
        <time>2020-11-12T10:54:02Z</time>
      </trkpt>
      <trkpt lat="48.84011" lon="-0.89664">
        <ele>166.7</ele>
        <time>2020-11-12T10:54:02Z</time>
      </trkpt>
      <trkpt lat="48.84013" lon="-0.89639">
        <ele>167</ele>
        <time>2020-11-12T10:54:02Z</time>
      </trkpt>
      <trkpt lat="48.84022" lon="-0.89584">
        <ele>167.2</ele>
        <time>2020-11-12T10:54:02Z</time>
      </trkpt>
      <trkpt lat="48.84028" lon="-0.89577">
        <ele>167</ele>
        <time>2020-11-12T10:54:02Z</time>
      </trkpt>
      <trkpt lat="48.84047" lon="-0.89587">
        <ele>166.2</ele>
        <time>2020-11-12T10:54:02Z</time>
      </trkpt>
      <trkpt lat="48.84054" lon="-0.89587">
        <ele>165.9</ele>
        <time>2020-11-12T10:54:02Z</time>
      </trkpt>
      <trkpt lat="48.84062" lon="-0.89582">
        <ele>165.6</ele>
        <time>2020-11-12T10:54:02Z</time>
      </trkpt>
      <trkpt lat="48.84063" lon="-0.89583">
        <ele>165.5</ele>
        <time>2020-11-12T10:54:02Z</time>
      </trkpt>
      <trkpt lat="48.84063" lon="-0.89583">
        <ele>165.5</ele>
        <time>2020-11-12T10:54:02Z</time>
      </trkpt>
      <trkpt lat="48.84079" lon="-0.89594">
        <ele>163.9</ele>
        <time>2020-11-12T10:54:02Z</time>
      </trkpt>
      <trkpt lat="48.84097" lon="-0.89607">
        <ele>162.6</ele>
        <time>2020-11-12T10:54:02Z</time>
      </trkpt>
      <trkpt lat="48.84103" lon="-0.89611">
        <ele>162.3</ele>
        <time>2020-11-12T10:54:02Z</time>
      </trkpt>
      <trkpt lat="48.84107" lon="-0.89613">
        <ele>162.1</ele>
        <time>2020-11-12T10:54:02Z</time>
      </trkpt>
      <trkpt lat="48.84111" lon="-0.89615">
        <ele>161.9</ele>
        <time>2020-11-12T10:54:02Z</time>
      </trkpt>
      <trkpt lat="48.84117" lon="-0.8962">
        <ele>161.2</ele>
        <time>2020-11-12T10:54:02Z</time>
      </trkpt>
      <trkpt lat="48.84129" lon="-0.89628">
        <ele>160.1</ele>
        <time>2020-11-12T10:54:02Z</time>
      </trkpt>
      <trkpt lat="48.84151" lon="-0.89642">
        <ele>158.5</ele>
        <time>2020-11-12T10:54:02Z</time>
      </trkpt>
      <trkpt lat="48.84158" lon="-0.89646">
        <ele>158.1</ele>
        <time>2020-11-12T10:54:02Z</time>
      </trkpt>
      <trkpt lat="48.84182" lon="-0.89663">
        <ele>156.5</ele>
        <time>2020-11-12T10:54:02Z</time>
      </trkpt>
      <trkpt lat="48.84219" lon="-0.89689">
        <ele>154.1</ele>
        <time>2020-11-12T10:54:02Z</time>
      </trkpt>
      <trkpt lat="48.84229" lon="-0.897">
        <ele>153.5</ele>
        <time>2020-11-12T10:54:02Z</time>
      </trkpt>
      <trkpt lat="48.84238" lon="-0.89725">
        <ele>152.8</ele>
        <time>2020-11-12T10:54:02Z</time>
      </trkpt>
      <trkpt lat="48.84244" lon="-0.89749">
        <ele>152.2</ele>
        <time>2020-11-12T10:54:02Z</time>
      </trkpt>
      <trkpt lat="48.84245" lon="-0.89778">
        <ele>151.3</ele>
        <time>2020-11-12T10:54:02Z</time>
      </trkpt>
      <trkpt lat="48.84241" lon="-0.89875">
        <ele>147.8</ele>
        <time>2020-11-12T10:54:02Z</time>
      </trkpt>
      <trkpt lat="48.84243" lon="-0.89901">
        <ele>146.2</ele>
        <time>2020-11-12T10:54:02Z</time>
      </trkpt>
      <trkpt lat="48.84248" lon="-0.89925">
        <ele>144.3</ele>
        <time>2020-11-12T10:54:02Z</time>
      </trkpt>
      <trkpt lat="48.84258" lon="-0.89938">
        <ele>142.6</ele>
        <time>2020-11-12T10:54:02Z</time>
      </trkpt>
      <trkpt lat="48.8427" lon="-0.89949">
        <ele>141.6</ele>
        <time>2020-11-12T10:54:02Z</time>
      </trkpt>
      <trkpt lat="48.84286" lon="-0.89954">
        <ele>140.4</ele>
        <time>2020-11-12T10:54:02Z</time>
      </trkpt>
      <trkpt lat="48.84301" lon="-0.89949">
        <ele>139.4</ele>
        <time>2020-11-12T10:54:02Z</time>
      </trkpt>
      <trkpt lat="48.84314" lon="-0.89935">
        <ele>139.7</ele>
        <time>2020-11-12T10:54:02Z</time>
      </trkpt>
      <trkpt lat="48.84326" lon="-0.89906">
        <ele>140.3</ele>
        <time>2020-11-12T10:54:02Z</time>
      </trkpt>
      <trkpt lat="48.84345" lon="-0.89869">
        <ele>138.1</ele>
        <time>2020-11-12T10:54:02Z</time>
      </trkpt>
      <trkpt lat="48.84359" lon="-0.89855">
        <ele>134.2</ele>
        <time>2020-11-12T10:54:02Z</time>
      </trkpt>
      <trkpt lat="48.84384" lon="-0.89838">
        <ele>132.7</ele>
        <time>2020-11-12T10:54:02Z</time>
      </trkpt>
      <trkpt lat="48.84395" lon="-0.89824">
        <ele>130.8</ele>
        <time>2020-11-12T10:54:02Z</time>
      </trkpt>
      <trkpt lat="48.84401" lon="-0.89808">
        <ele>128.7</ele>
        <time>2020-11-12T10:54:02Z</time>
      </trkpt>
      <trkpt lat="48.84413" lon="-0.89722">
        <ele>127.6</ele>
        <time>2020-11-12T10:54:02Z</time>
      </trkpt>
      <trkpt lat="48.84423" lon="-0.89696">
        <ele>125.4</ele>
        <time>2020-11-12T10:54:02Z</time>
      </trkpt>
      <trkpt lat="48.84449" lon="-0.89637">
        <ele>123.2</ele>
        <time>2020-11-12T10:54:02Z</time>
      </trkpt>
      <trkpt lat="48.84456" lon="-0.89612">
        <ele>122.5</ele>
        <time>2020-11-12T10:54:02Z</time>
      </trkpt>
      <trkpt lat="48.84459" lon="-0.89591">
        <ele>121.6</ele>
        <time>2020-11-12T10:54:02Z</time>
      </trkpt>
      <trkpt lat="48.84463" lon="-0.8957">
        <ele>121.5</ele>
        <time>2020-11-12T10:54:02Z</time>
      </trkpt>
      <trkpt lat="48.84467" lon="-0.89557">
        <ele>121.2</ele>
        <time>2020-11-12T10:54:02Z</time>
      </trkpt>
      <trkpt lat="48.84475" lon="-0.8954">
        <ele>120.3</ele>
        <time>2020-11-12T10:54:02Z</time>
      </trkpt>
      <trkpt lat="48.84487" lon="-0.89524">
        <ele>119.4</ele>
        <time>2020-11-12T10:54:02Z</time>
      </trkpt>
      <trkpt lat="48.8449" lon="-0.89522">
        <ele>119.1</ele>
        <time>2020-11-12T10:54:02Z</time>
      </trkpt>
      <trkpt lat="48.84506" lon="-0.89506">
        <ele>117.6</ele>
        <time>2020-11-12T10:54:02Z</time>
      </trkpt>
      <trkpt lat="48.84508" lon="-0.89503">
        <ele>117.5</ele>
        <time>2020-11-12T10:54:02Z</time>
      </trkpt>
      <trkpt lat="48.84508" lon="-0.89503">
        <ele>117.5</ele>
        <time>2020-11-12T10:54:02Z</time>
      </trkpt>
      <trkpt lat="48.84511" lon="-0.89498">
        <ele>117.2</ele>
        <time>2020-11-12T10:54:02Z</time>
      </trkpt>
      <trkpt lat="48.84514" lon="-0.8949">
        <ele>117</ele>
        <time>2020-11-12T10:54:02Z</time>
      </trkpt>
      <trkpt lat="48.84515" lon="-0.89483">
        <ele>116.9</ele>
        <time>2020-11-12T10:54:02Z</time>
      </trkpt>
      <trkpt lat="48.8452" lon="-0.89472">
        <ele>116.6</ele>
        <time>2020-11-12T10:54:02Z</time>
      </trkpt>
      <trkpt lat="48.84523" lon="-0.89469">
        <ele>116.3</ele>
        <time>2020-11-12T10:54:02Z</time>
      </trkpt>
      <trkpt lat="48.84529" lon="-0.89453">
        <ele>115.2</ele>
        <time>2020-11-12T10:54:02Z</time>
      </trkpt>
      <trkpt lat="48.8453" lon="-0.89437">
        <ele>114.9</ele>
        <time>2020-11-12T10:54:02Z</time>
      </trkpt>
      <trkpt lat="48.8453" lon="-0.89421">
        <ele>114.9</ele>
        <time>2020-11-12T10:54:02Z</time>
      </trkpt>
      <trkpt lat="48.84526" lon="-0.89388">
        <ele>115.3</ele>
        <time>2020-11-12T10:54:02Z</time>
      </trkpt>
      <trkpt lat="48.84517" lon="-0.89346">
        <ele>117</ele>
        <time>2020-11-12T10:54:02Z</time>
      </trkpt>
      <trkpt lat="48.84517" lon="-0.89344">
        <ele>117.1</ele>
        <time>2020-11-12T10:54:02Z</time>
      </trkpt>
      <trkpt lat="48.84513" lon="-0.89314">
        <ele>117.3</ele>
        <time>2020-11-12T10:54:02Z</time>
      </trkpt>
      <trkpt lat="48.84527" lon="-0.89324">
        <ele>116.1</ele>
        <time>2020-11-12T10:54:02Z</time>
      </trkpt>
      <trkpt lat="48.84527" lon="-0.89324">
        <ele>116.1</ele>
        <time>2020-11-12T10:54:02Z</time>
      </trkpt>
      <trkpt lat="48.84531" lon="-0.89327">
        <ele>115.9</ele>
        <time>2020-11-12T10:54:02Z</time>
      </trkpt>
      <trkpt lat="48.84536" lon="-0.8933">
        <ele>115.7</ele>
        <time>2020-11-12T10:54:02Z</time>
      </trkpt>
      <trkpt lat="48.84553" lon="-0.89337">
        <ele>115.1</ele>
        <time>2020-11-12T10:54:02Z</time>
      </trkpt>
      <trkpt lat="48.84576" lon="-0.89335">
        <ele>114.3</ele>
        <time>2020-11-12T10:54:02Z</time>
      </trkpt>
      <trkpt lat="48.84629" lon="-0.89329">
        <ele>111.8</ele>
        <time>2020-11-12T10:54:02Z</time>
      </trkpt>
      <trkpt lat="48.84711" lon="-0.89312">
        <ele>107.6</ele>
        <time>2020-11-12T10:54:02Z</time>
      </trkpt>
      <trkpt lat="48.84816" lon="-0.89293">
        <ele>105.2</ele>
        <time>2020-11-12T10:54:02Z</time>
      </trkpt>
      <trkpt lat="48.84808" lon="-0.89212">
        <ele>107.3</ele>
        <time>2020-11-12T10:54:02Z</time>
      </trkpt>
      <trkpt lat="48.84808" lon="-0.89212">
        <ele>107.3</ele>
        <time>2020-11-12T10:54:02Z</time>
      </trkpt>
      <trkpt lat="48.84808" lon="-0.89209">
        <ele>107.4</ele>
        <time>2020-11-12T10:54:02Z</time>
      </trkpt>
      <trkpt lat="48.84868" lon="-0.89221">
        <ele>105.8</ele>
        <time>2020-11-12T10:54:02Z</time>
      </trkpt>
      <trkpt lat="48.84906" lon="-0.89233">
        <ele>105</ele>
        <time>2020-11-12T10:54:02Z</time>
      </trkpt>
      <trkpt lat="48.8494" lon="-0.89242">
        <ele>104.4</ele>
        <time>2020-11-12T10:54:02Z</time>
      </trkpt>
      <trkpt lat="48.84949" lon="-0.89241">
        <ele>104.3</ele>
        <time>2020-11-12T10:54:02Z</time>
      </trkpt>
      <trkpt lat="48.8497" lon="-0.89239">
        <ele>104.4</ele>
        <time>2020-11-12T10:54:02Z</time>
      </trkpt>
      <trkpt lat="48.85011" lon="-0.89225">
        <ele>103.4</ele>
        <time>2020-11-12T10:54:02Z</time>
      </trkpt>
      <trkpt lat="48.85078" lon="-0.8921">
        <ele>101.6</ele>
        <time>2020-11-12T10:54:02Z</time>
      </trkpt>
      <trkpt lat="48.8508" lon="-0.89209">
        <ele>101.6</ele>
        <time>2020-11-12T10:54:02Z</time>
      </trkpt>
      <trkpt lat="48.85107" lon="-0.89199">
        <ele>101</ele>
        <time>2020-11-12T10:54:02Z</time>
      </trkpt>
      <trkpt lat="48.85128" lon="-0.89182">
        <ele>101.4</ele>
        <time>2020-11-12T10:54:02Z</time>
      </trkpt>
      <trkpt lat="48.85159" lon="-0.89136">
        <ele>101.3</ele>
        <time>2020-11-12T10:54:02Z</time>
      </trkpt>
      <trkpt lat="48.85175" lon="-0.89098">
        <ele>101.5</ele>
        <time>2020-11-12T10:54:02Z</time>
      </trkpt>
      <trkpt lat="48.85184" lon="-0.89055">
        <ele>103</ele>
        <time>2020-11-12T10:54:02Z</time>
      </trkpt>
      <trkpt lat="48.8519" lon="-0.88987">
        <ele>104.5</ele>
        <time>2020-11-12T10:54:02Z</time>
      </trkpt>
      <trkpt lat="48.85189" lon="-0.88937">
        <ele>106.2</ele>
        <time>2020-11-12T10:54:02Z</time>
      </trkpt>
      <trkpt lat="48.85184" lon="-0.88896">
        <ele>107.4</ele>
        <time>2020-11-12T10:54:02Z</time>
      </trkpt>
      <trkpt lat="48.8518" lon="-0.88881">
        <ele>107.8</ele>
        <time>2020-11-12T10:54:02Z</time>
      </trkpt>
      <trkpt lat="48.85166" lon="-0.88856">
        <ele>108.2</ele>
        <time>2020-11-12T10:54:02Z</time>
      </trkpt>
      <trkpt lat="48.85127" lon="-0.88803">
        <ele>109.1</ele>
        <time>2020-11-12T10:54:02Z</time>
      </trkpt>
      <trkpt lat="48.85127" lon="-0.88803">
        <ele>109.1</ele>
        <time>2020-11-12T10:54:02Z</time>
      </trkpt>
      <trkpt lat="48.85126" lon="-0.88801">
        <ele>109.2</ele>
        <time>2020-11-12T10:54:02Z</time>
      </trkpt>
      <trkpt lat="48.85139" lon="-0.8876">
        <ele>110.6</ele>
        <time>2020-11-12T10:54:02Z</time>
      </trkpt>
      <trkpt lat="48.85144" lon="-0.88727">
        <ele>111.2</ele>
        <time>2020-11-12T10:54:02Z</time>
      </trkpt>
      <trkpt lat="48.85146" lon="-0.88697">
        <ele>112.2</ele>
        <time>2020-11-12T10:54:02Z</time>
      </trkpt>
      <trkpt lat="48.85145" lon="-0.88688">
        <ele>112.4</ele>
        <time>2020-11-12T10:54:02Z</time>
      </trkpt>
      <trkpt lat="48.85142" lon="-0.88656">
        <ele>113.5</ele>
        <time>2020-11-12T10:54:02Z</time>
      </trkpt>
      <trkpt lat="48.85141" lon="-0.88639">
        <ele>114</ele>
        <time>2020-11-12T10:54:02Z</time>
      </trkpt>
      <trkpt lat="48.85139" lon="-0.8864">
        <ele>114</ele>
        <time>2020-11-12T10:54:02Z</time>
      </trkpt>
      <trkpt lat="48.85139" lon="-0.8864">
        <ele>114</ele>
        <time>2020-11-12T10:54:02Z</time>
      </trkpt>
      <trkpt lat="48.85141" lon="-0.88639">
        <ele>114</ele>
        <time>2020-11-12T10:54:02Z</time>
      </trkpt>
      <trkpt lat="48.85147" lon="-0.88635">
        <ele>114</ele>
        <time>2020-11-12T10:54:02Z</time>
      </trkpt>
      <trkpt lat="48.85176" lon="-0.88612">
        <ele>115.3</ele>
        <time>2020-11-12T10:54:02Z</time>
      </trkpt>
      <trkpt lat="48.85195" lon="-0.88595">
        <ele>116.6</ele>
        <time>2020-11-12T10:54:02Z</time>
      </trkpt>
      <trkpt lat="48.8521" lon="-0.88568">
        <ele>117.6</ele>
        <time>2020-11-12T10:54:02Z</time>
      </trkpt>
      <trkpt lat="48.85215" lon="-0.88551">
        <ele>117.9</ele>
        <time>2020-11-12T10:54:02Z</time>
      </trkpt>
      <trkpt lat="48.85217" lon="-0.88537">
        <ele>118.5</ele>
        <time>2020-11-12T10:54:02Z</time>
      </trkpt>
      <trkpt lat="48.85214" lon="-0.88537">
        <ele>118.4</ele>
        <time>2020-11-12T10:54:02Z</time>
      </trkpt>
      <trkpt lat="48.85211" lon="-0.88533">
        <ele>118.4</ele>
        <time>2020-11-12T10:54:02Z</time>
      </trkpt>
      <trkpt lat="48.85209" lon="-0.88526">
        <ele>118.6</ele>
        <time>2020-11-12T10:54:02Z</time>
      </trkpt>
      <trkpt lat="48.85209" lon="-0.88524">
        <ele>118.6</ele>
        <time>2020-11-12T10:54:02Z</time>
      </trkpt>
      <trkpt lat="48.85209" lon="-0.88524">
        <ele>118.6</ele>
        <time>2020-11-12T10:54:02Z</time>
      </trkpt>
      <trkpt lat="48.8521" lon="-0.8852">
        <ele>118.7</ele>
        <time>2020-11-12T10:54:02Z</time>
      </trkpt>
      <trkpt lat="48.85212" lon="-0.88516">
        <ele>118.8</ele>
        <time>2020-11-12T10:54:02Z</time>
      </trkpt>
      <trkpt lat="48.85215" lon="-0.88514">
        <ele>118.9</ele>
        <time>2020-11-12T10:54:02Z</time>
      </trkpt>
      <trkpt lat="48.85219" lon="-0.88515">
        <ele>118.9</ele>
        <time>2020-11-12T10:54:02Z</time>
      </trkpt>
      <trkpt lat="48.85222" lon="-0.88504">
        <ele>119</ele>
        <time>2020-11-12T10:54:02Z</time>
      </trkpt>
      <trkpt lat="48.85221" lon="-0.88426">
        <ele>122.3</ele>
        <time>2020-11-12T10:54:02Z</time>
      </trkpt>
      <trkpt lat="48.85216" lon="-0.88248">
        <ele>122.8</ele>
        <time>2020-11-12T10:54:02Z</time>
      </trkpt>
      <trkpt lat="48.85215" lon="-0.88226">
        <ele>122.7</ele>
        <time>2020-11-12T10:54:02Z</time>
      </trkpt>
      <trkpt lat="48.85213" lon="-0.88176">
        <ele>122.2</ele>
        <time>2020-11-12T10:54:02Z</time>
      </trkpt>
      <trkpt lat="48.8521" lon="-0.88108">
        <ele>122</ele>
        <time>2020-11-12T10:54:02Z</time>
      </trkpt>
      <trkpt lat="48.85208" lon="-0.8808">
        <ele>122</ele>
        <time>2020-11-12T10:54:02Z</time>
      </trkpt>
      <trkpt lat="48.85195" lon="-0.88089">
        <ele>122</ele>
        <time>2020-11-12T10:54:02Z</time>
      </trkpt>
      <trkpt lat="48.85183" lon="-0.88097">
        <ele>122</ele>
        <time>2020-11-12T10:54:02Z</time>
      </trkpt>
      <trkpt lat="48.85183" lon="-0.88097">
        <ele>122</ele>
        <time>2020-11-12T10:54:02Z</time>
      </trkpt>
      <trkpt lat="48.8518" lon="-0.88099">
        <ele>122</ele>
        <time>2020-11-12T10:54:02Z</time>
      </trkpt>
      <trkpt lat="48.85151" lon="-0.88117">
        <ele>122.7</ele>
        <time>2020-11-12T10:54:02Z</time>
      </trkpt>
      <trkpt lat="48.85033" lon="-0.88191">
        <ele>123.8</ele>
        <time>2020-11-12T10:54:02Z</time>
      </trkpt>
      <trkpt lat="48.84981" lon="-0.88224">
        <ele>124.7</ele>
        <time>2020-11-12T10:54:02Z</time>
      </trkpt>
      <trkpt lat="48.8494" lon="-0.8825">
        <ele>125.1</ele>
        <time>2020-11-12T10:54:02Z</time>
      </trkpt>
      <trkpt lat="48.84849" lon="-0.88309">
        <ele>127.3</ele>
        <time>2020-11-12T10:54:02Z</time>
      </trkpt>
      <trkpt lat="48.84775" lon="-0.88357">
        <ele>129.1</ele>
        <time>2020-11-12T10:54:02Z</time>
      </trkpt>
      <trkpt lat="48.84761" lon="-0.88368">
        <ele>129.4</ele>
        <time>2020-11-12T10:54:02Z</time>
      </trkpt>
      <trkpt lat="48.84746" lon="-0.88391">
        <ele>130.1</ele>
        <time>2020-11-12T10:54:02Z</time>
      </trkpt>
      <trkpt lat="48.84741" lon="-0.884">
        <ele>130</ele>
        <time>2020-11-12T10:54:02Z</time>
      </trkpt>
      <trkpt lat="48.84733" lon="-0.88413">
        <ele>130</ele>
        <time>2020-11-12T10:54:02Z</time>
      </trkpt>
      <trkpt lat="48.84726" lon="-0.88426">
        <ele>130.4</ele>
        <time>2020-11-12T10:54:02Z</time>
      </trkpt>
      <trkpt lat="48.84719" lon="-0.88437">
        <ele>130.4</ele>
        <time>2020-11-12T10:54:02Z</time>
      </trkpt>
      <trkpt lat="48.84718" lon="-0.88439">
        <ele>130.4</ele>
        <time>2020-11-12T10:54:02Z</time>
      </trkpt>
      <trkpt lat="48.84696" lon="-0.88483">
        <ele>128.6</ele>
        <time>2020-11-12T10:54:02Z</time>
      </trkpt>
      <trkpt lat="48.84671" lon="-0.88533">
        <ele>127.1</ele>
        <time>2020-11-12T10:54:02Z</time>
      </trkpt>
      <trkpt lat="48.84663" lon="-0.88548">
        <ele>127</ele>
        <time>2020-11-12T10:54:02Z</time>
      </trkpt>
      <trkpt lat="48.8466" lon="-0.88553">
        <ele>126.8</ele>
        <time>2020-11-12T10:54:02Z</time>
      </trkpt>
      <trkpt lat="48.84655" lon="-0.88544">
        <ele>127.1</ele>
        <time>2020-11-12T10:54:02Z</time>
      </trkpt>
      <trkpt lat="48.84656" lon="-0.88542">
        <ele>127.2</ele>
        <time>2020-11-12T10:54:02Z</time>
      </trkpt>
      <trkpt lat="48.84665" lon="-0.88526">
        <ele>127.2</ele>
        <time>2020-11-12T10:54:02Z</time>
      </trkpt>
      <trkpt lat="48.84665" lon="-0.88526">
        <ele>127.2</ele>
        <time>2020-11-12T10:54:02Z</time>
      </trkpt>
      <trkpt lat="48.84667" lon="-0.88522">
        <ele>127.4</ele>
        <time>2020-11-12T10:54:02Z</time>
      </trkpt>
      <trkpt lat="48.8469" lon="-0.88476">
        <ele>129.1</ele>
        <time>2020-11-12T10:54:02Z</time>
      </trkpt>
      <trkpt lat="48.84696" lon="-0.88483">
        <ele>128.6</ele>
        <time>2020-11-12T10:54:02Z</time>
      </trkpt>
      <trkpt lat="48.84671" lon="-0.88533">
        <ele>127.1</ele>
        <time>2020-11-12T10:54:02Z</time>
      </trkpt>
      <trkpt lat="48.84663" lon="-0.88548">
        <ele>127</ele>
        <time>2020-11-12T10:54:02Z</time>
      </trkpt>
      <trkpt lat="48.8466" lon="-0.88553">
        <ele>126.8</ele>
        <time>2020-11-12T10:54:02Z</time>
      </trkpt>
      <trkpt lat="48.84657" lon="-0.88558">
        <ele>126.6</ele>
        <time>2020-11-12T10:54:02Z</time>
      </trkpt>
      <trkpt lat="48.8465" lon="-0.88567">
        <ele>126.2</ele>
        <time>2020-11-12T10:54:02Z</time>
      </trkpt>
      <trkpt lat="48.84647" lon="-0.88571">
        <ele>126.1</ele>
        <time>2020-11-12T10:54:02Z</time>
      </trkpt>
      <trkpt lat="48.84628" lon="-0.88585">
        <ele>126.3</ele>
        <time>2020-11-12T10:54:02Z</time>
      </trkpt>
      <trkpt lat="48.84617" lon="-0.88598">
        <ele>126.3</ele>
        <time>2020-11-12T10:54:02Z</time>
      </trkpt>
      <trkpt lat="48.8461" lon="-0.88604">
        <ele>126.6</ele>
        <time>2020-11-12T10:54:02Z</time>
      </trkpt>
      <trkpt lat="48.846" lon="-0.88612">
        <ele>128.4</ele>
        <time>2020-11-12T10:54:02Z</time>
      </trkpt>
      <trkpt lat="48.84568" lon="-0.88635">
        <ele>129.7</ele>
        <time>2020-11-12T10:54:02Z</time>
      </trkpt>
      <trkpt lat="48.84543" lon="-0.88655">
        <ele>129.4</ele>
        <time>2020-11-12T10:54:02Z</time>
      </trkpt>
      <trkpt lat="48.84536" lon="-0.88629">
        <ele>130.6</ele>
        <time>2020-11-12T10:54:02Z</time>
      </trkpt>
      <trkpt lat="48.84535" lon="-0.88619">
        <ele>131</ele>
        <time>2020-11-12T10:54:02Z</time>
      </trkpt>
      <trkpt lat="48.84536" lon="-0.88608">
        <ele>131.7</ele>
        <time>2020-11-12T10:54:02Z</time>
      </trkpt>
      <trkpt lat="48.8454" lon="-0.88598">
        <ele>132.8</ele>
        <time>2020-11-12T10:54:02Z</time>
      </trkpt>
      <trkpt lat="48.84556" lon="-0.88574">
        <ele>132</ele>
        <time>2020-11-12T10:54:02Z</time>
      </trkpt>
      <trkpt lat="48.84575" lon="-0.88551">
        <ele>132.8</ele>
        <time>2020-11-12T10:54:02Z</time>
      </trkpt>
      <trkpt lat="48.84582" lon="-0.88536">
        <ele>132.8</ele>
        <time>2020-11-12T10:54:02Z</time>
      </trkpt>
      <trkpt lat="48.84583" lon="-0.88529">
        <ele>133</ele>
        <time>2020-11-12T10:54:02Z</time>
      </trkpt>
      <trkpt lat="48.84584" lon="-0.88522">
        <ele>133.2</ele>
        <time>2020-11-12T10:54:02Z</time>
      </trkpt>
      <trkpt lat="48.84583" lon="-0.88507">
        <ele>133.8</ele>
        <time>2020-11-12T10:54:02Z</time>
      </trkpt>
      <trkpt lat="48.84581" lon="-0.88492">
        <ele>134.4</ele>
        <time>2020-11-12T10:54:02Z</time>
      </trkpt>
      <trkpt lat="48.84577" lon="-0.8848">
        <ele>135</ele>
        <time>2020-11-12T10:54:02Z</time>
      </trkpt>
      <trkpt lat="48.84575" lon="-0.88483">
        <ele>135</ele>
        <time>2020-11-12T10:54:02Z</time>
      </trkpt>
      <trkpt lat="48.84569" lon="-0.88487">
        <ele>135.3</ele>
        <time>2020-11-12T10:54:02Z</time>
      </trkpt>
      <trkpt lat="48.84566" lon="-0.88487">
        <ele>135.5</ele>
        <time>2020-11-12T10:54:02Z</time>
      </trkpt>
      <trkpt lat="48.84554" lon="-0.88494">
        <ele>136.1</ele>
        <time>2020-11-12T10:54:02Z</time>
      </trkpt>
      <trkpt lat="48.84545" lon="-0.885">
        <ele>136.8</ele>
        <time>2020-11-12T10:54:02Z</time>
      </trkpt>
      <trkpt lat="48.84481" lon="-0.88538">
        <ele>141.4</ele>
        <time>2020-11-12T10:54:02Z</time>
      </trkpt>
      <trkpt lat="48.84471" lon="-0.88544">
        <ele>142.1</ele>
        <time>2020-11-12T10:54:02Z</time>
      </trkpt>
      <trkpt lat="48.84435" lon="-0.88566">
        <ele>143.9</ele>
        <time>2020-11-12T10:54:02Z</time>
      </trkpt>
      <trkpt lat="48.84352" lon="-0.88617">
        <ele>150</ele>
        <time>2020-11-12T10:54:02Z</time>
      </trkpt>
      <trkpt lat="48.84337" lon="-0.88626">
        <ele>151.2</ele>
        <time>2020-11-12T10:54:02Z</time>
      </trkpt>
      <trkpt lat="48.84305" lon="-0.88647">
        <ele>152.8</ele>
        <time>2020-11-12T10:54:02Z</time>
      </trkpt>
      <trkpt lat="48.84297" lon="-0.88652">
        <ele>153.3</ele>
        <time>2020-11-12T10:54:02Z</time>
      </trkpt>
      <trkpt lat="48.8429" lon="-0.88656">
        <ele>153.8</ele>
        <time>2020-11-12T10:54:02Z</time>
      </trkpt>
      <trkpt lat="48.84274" lon="-0.88666">
        <ele>154.5</ele>
        <time>2020-11-12T10:54:02Z</time>
      </trkpt>
      <trkpt lat="48.8426" lon="-0.88675">
        <ele>155.7</ele>
        <time>2020-11-12T10:54:02Z</time>
      </trkpt>
      <trkpt lat="48.84227" lon="-0.88695">
        <ele>157.7</ele>
        <time>2020-11-12T10:54:02Z</time>
      </trkpt>
      <trkpt lat="48.84202" lon="-0.88711">
        <ele>159</ele>
        <time>2020-11-12T10:54:02Z</time>
      </trkpt>
      <trkpt lat="48.84171" lon="-0.8873">
        <ele>161.9</ele>
        <time>2020-11-12T10:54:02Z</time>
      </trkpt>
      <trkpt lat="48.8415" lon="-0.88743">
        <ele>163</ele>
        <time>2020-11-12T10:54:02Z</time>
      </trkpt>
      <trkpt lat="48.84142" lon="-0.88748">
        <ele>163.1</ele>
        <time>2020-11-12T10:54:02Z</time>
      </trkpt>
      <trkpt lat="48.84131" lon="-0.88755">
        <ele>163.9</ele>
        <time>2020-11-12T10:54:02Z</time>
      </trkpt>
      <trkpt lat="48.84109" lon="-0.88768">
        <ele>165</ele>
        <time>2020-11-12T10:54:02Z</time>
      </trkpt>
      <trkpt lat="48.84058" lon="-0.88801">
        <ele>166</ele>
        <time>2020-11-12T10:54:02Z</time>
      </trkpt>
      <trkpt lat="48.84008" lon="-0.88834">
        <ele>169.4</ele>
        <time>2020-11-12T10:54:02Z</time>
      </trkpt>
      <trkpt lat="48.83958" lon="-0.88864">
        <ele>172</ele>
        <time>2020-11-12T10:54:02Z</time>
      </trkpt>
      <trkpt lat="48.83949" lon="-0.8887">
        <ele>172.4</ele>
        <time>2020-11-12T10:54:02Z</time>
      </trkpt>
      <trkpt lat="48.83941" lon="-0.88875">
        <ele>172.7</ele>
        <time>2020-11-12T10:54:02Z</time>
      </trkpt>
      <trkpt lat="48.83897" lon="-0.88901">
        <ele>175</ele>
        <time>2020-11-12T10:54:02Z</time>
      </trkpt>
      <trkpt lat="48.83873" lon="-0.88917">
        <ele>175.4</ele>
        <time>2020-11-12T10:54:02Z</time>
      </trkpt>
      <trkpt lat="48.83864" lon="-0.88923">
        <ele>175.3</ele>
        <time>2020-11-12T10:54:02Z</time>
      </trkpt>
      <trkpt lat="48.83866" lon="-0.88932">
        <ele>175.6</ele>
        <time>2020-11-12T10:54:02Z</time>
      </trkpt>
      <trkpt lat="48.83865" lon="-0.88939">
        <ele>175.8</ele>
        <time>2020-11-12T10:54:02Z</time>
      </trkpt>
      <trkpt lat="48.83863" lon="-0.88946">
        <ele>176</ele>
        <time>2020-11-12T10:54:02Z</time>
      </trkpt>
      <trkpt lat="48.83867" lon="-0.88951">
        <ele>176</ele>
        <time>2020-11-12T10:54:02Z</time>
      </trkpt>
      <trkpt lat="48.83867" lon="-0.88951">
        <ele>176</ele>
        <time>2020-11-12T10:54:02Z</time>
      </trkpt>
      <trkpt lat="48.83863" lon="-0.88946">
        <ele>176</ele>
        <time>2020-11-12T10:54:02Z</time>
      </trkpt>
      <trkpt lat="48.83857" lon="-0.88953">
        <ele>175.9</ele>
        <time>2020-11-12T10:54:02Z</time>
      </trkpt>
      <trkpt lat="48.8385" lon="-0.88955">
        <ele>175.8</ele>
        <time>2020-11-12T10:54:02Z</time>
      </trkpt>
      <trkpt lat="48.83843" lon="-0.88952">
        <ele>175.5</ele>
        <time>2020-11-12T10:54:02Z</time>
      </trkpt>
      <trkpt lat="48.83838" lon="-0.88943">
        <ele>175.1</ele>
        <time>2020-11-12T10:54:02Z</time>
      </trkpt>
      <trkpt lat="48.83836" lon="-0.88937">
        <ele>175.1</ele>
        <time>2020-11-12T10:54:02Z</time>
      </trkpt>
      <trkpt lat="48.83836" lon="-0.88929">
        <ele>175</ele>
        <time>2020-11-12T10:54:02Z</time>
      </trkpt>
      <trkpt lat="48.83832" lon="-0.88928">
        <ele>174.9</ele>
        <time>2020-11-12T10:54:02Z</time>
      </trkpt>
      <trkpt lat="48.83798" lon="-0.88918">
        <ele>172.1</ele>
        <time>2020-11-12T10:54:02Z</time>
      </trkpt>
      <trkpt lat="48.8379" lon="-0.88916">
        <ele>171.4</ele>
        <time>2020-11-12T10:54:02Z</time>
      </trkpt>
      <trkpt lat="48.83787" lon="-0.88915">
        <ele>171.1</ele>
        <time>2020-11-12T10:54:02Z</time>
      </trkpt>
      <trkpt lat="48.83786" lon="-0.88919">
        <ele>171</ele>
        <time>2020-11-12T10:54:02Z</time>
      </trkpt>
      <trkpt lat="48.83786" lon="-0.88919">
        <ele>171</ele>
        <time>2020-11-12T10:54:02Z</time>
      </trkpt>
      <trkpt lat="48.8378" lon="-0.88974">
        <ele>172.2</ele>
        <time>2020-11-12T10:54:02Z</time>
      </trkpt>
      <trkpt lat="48.83822" lon="-0.88989">
        <ele>175.4</ele>
        <time>2020-11-12T10:54:02Z</time>
      </trkpt>
      <trkpt lat="48.83834" lon="-0.88946">
        <ele>175.1</ele>
        <time>2020-11-12T10:54:02Z</time>
      </trkpt>
      <trkpt lat="48.83836" lon="-0.88937">
        <ele>175.1</ele>
        <time>2020-11-12T10:54:02Z</time>
      </trkpt>
      <trkpt lat="48.83836" lon="-0.88929">
        <ele>175</ele>
        <time>2020-11-12T10:54:02Z</time>
      </trkpt>
      <trkpt lat="48.83838" lon="-0.8892">
        <ele>175</ele>
        <time>2020-11-12T10:54:02Z</time>
      </trkpt>
      <trkpt lat="48.83842" lon="-0.88914">
        <ele>175.1</ele>
        <time>2020-11-12T10:54:02Z</time>
      </trkpt>
      <trkpt lat="48.83847" lon="-0.88911">
        <ele>175.2</ele>
        <time>2020-11-12T10:54:02Z</time>
      </trkpt>
      <trkpt lat="48.83852" lon="-0.8891">
        <ele>175.2</ele>
        <time>2020-11-12T10:54:02Z</time>
      </trkpt>
      <trkpt lat="48.83856" lon="-0.88911">
        <ele>175.2</ele>
        <time>2020-11-12T10:54:02Z</time>
      </trkpt>
      <trkpt lat="48.8386" lon="-0.88915">
        <ele>175.1</ele>
        <time>2020-11-12T10:54:02Z</time>
      </trkpt>
      <trkpt lat="48.83864" lon="-0.88923">
        <ele>175.3</ele>
        <time>2020-11-12T10:54:02Z</time>
      </trkpt>
      <trkpt lat="48.83866" lon="-0.88932">
        <ele>175.6</ele>
        <time>2020-11-12T10:54:02Z</time>
      </trkpt>
      <trkpt lat="48.83865" lon="-0.88939">
        <ele>175.8</ele>
        <time>2020-11-12T10:54:02Z</time>
      </trkpt>
      <trkpt lat="48.83863" lon="-0.88946">
        <ele>176</ele>
        <time>2020-11-12T10:54:02Z</time>
      </trkpt>
      <trkpt lat="48.83857" lon="-0.88953">
        <ele>175.9</ele>
        <time>2020-11-12T10:54:02Z</time>
      </trkpt>
      <trkpt lat="48.83853" lon="-0.88967">
        <ele>175.9</ele>
        <time>2020-11-12T10:54:02Z</time>
      </trkpt>
      <trkpt lat="48.83846" lon="-0.88997">
        <ele>176.4</ele>
        <time>2020-11-12T10:54:02Z</time>
      </trkpt>
      <trkpt lat="48.83845" lon="-0.89002">
        <ele>176.4</ele>
        <time>2020-11-12T10:54:02Z</time>
      </trkpt>
      <trkpt lat="48.83837" lon="-0.89019">
        <ele>176.1</ele>
        <time>2020-11-12T10:54:02Z</time>
      </trkpt>
      <trkpt lat="48.83823" lon="-0.89031">
        <ele>175.7</ele>
        <time>2020-11-12T10:54:02Z</time>
      </trkpt>
      <trkpt lat="48.83818" lon="-0.89057">
        <ele>176</ele>
        <time>2020-11-12T10:54:02Z</time>
      </trkpt>
      <trkpt lat="48.83793" lon="-0.89045">
        <ele>174.1</ele>
        <time>2020-11-12T10:54:02Z</time>
      </trkpt>
      <trkpt lat="48.83777" lon="-0.8904">
        <ele>173</ele>
        <time>2020-11-12T10:54:02Z</time>
      </trkpt>
      <trkpt lat="48.83777" lon="-0.8904">
        <ele>173</ele>
        <time>2020-11-12T10:54:02Z</time>
      </trkpt>
      <trkpt lat="48.8377" lon="-0.89038">
        <ele>172.2</ele>
        <time>2020-11-12T10:54:02Z</time>
      </trkpt>
      <trkpt lat="48.83751" lon="-0.89031">
        <ele>170.2</ele>
        <time>2020-11-12T10:54:02Z</time>
      </trkpt>
      <trkpt lat="48.83724" lon="-0.89023">
        <ele>167.2</ele>
        <time>2020-11-12T10:54:02Z</time>
      </trkpt>
      <trkpt lat="48.83717" lon="-0.89021">
        <ele>166.4</ele>
        <time>2020-11-12T10:54:02Z</time>
      </trkpt>
      <trkpt lat="48.83718" lon="-0.89013">
        <ele>166.5</ele>
        <time>2020-11-12T10:54:02Z</time>
      </trkpt>
      <trkpt lat="48.8373" lon="-0.88958">
        <ele>166.3</ele>
        <time>2020-11-12T10:54:02Z</time>
      </trkpt>
      <trkpt lat="48.83738" lon="-0.88899">
        <ele>166.5</ele>
        <time>2020-11-12T10:54:02Z</time>
      </trkpt>
      <trkpt lat="48.83747" lon="-0.88901">
        <ele>167.3</ele>
        <time>2020-11-12T10:54:02Z</time>
      </trkpt>
      <trkpt lat="48.83757" lon="-0.88904">
        <ele>168.2</ele>
        <time>2020-11-12T10:54:02Z</time>
      </trkpt>
      <trkpt lat="48.83787" lon="-0.88915">
        <ele>171.1</ele>
        <time>2020-11-12T10:54:02Z</time>
      </trkpt>
      <trkpt lat="48.8379" lon="-0.88916">
        <ele>171.4</ele>
        <time>2020-11-12T10:54:02Z</time>
      </trkpt>
      <trkpt lat="48.83798" lon="-0.88918">
        <ele>172.1</ele>
        <time>2020-11-12T10:54:02Z</time>
      </trkpt>
      <trkpt lat="48.83832" lon="-0.88928">
        <ele>174.9</ele>
        <time>2020-11-12T10:54:02Z</time>
      </trkpt>
      <trkpt lat="48.83836" lon="-0.88929">
        <ele>175</ele>
        <time>2020-11-12T10:54:02Z</time>
      </trkpt>
      <trkpt lat="48.83838" lon="-0.8892">
        <ele>175</ele>
        <time>2020-11-12T10:54:02Z</time>
      </trkpt>
      <trkpt lat="48.83842" lon="-0.88914">
        <ele>175.1</ele>
        <time>2020-11-12T10:54:02Z</time>
      </trkpt>
      <trkpt lat="48.83847" lon="-0.88911">
        <ele>175.2</ele>
        <time>2020-11-12T10:54:02Z</time>
      </trkpt>
      <trkpt lat="48.83852" lon="-0.8891">
        <ele>175.2</ele>
        <time>2020-11-12T10:54:02Z</time>
      </trkpt>
      <trkpt lat="48.83856" lon="-0.88911">
        <ele>175.2</ele>
        <time>2020-11-12T10:54:02Z</time>
      </trkpt>
      <trkpt lat="48.8386" lon="-0.88915">
        <ele>175.1</ele>
        <time>2020-11-12T10:54:02Z</time>
      </trkpt>
      <trkpt lat="48.83864" lon="-0.88923">
        <ele>175.3</ele>
        <time>2020-11-12T10:54:02Z</time>
      </trkpt>
      <trkpt lat="48.83866" lon="-0.88932">
        <ele>175.6</ele>
        <time>2020-11-12T10:54:02Z</time>
      </trkpt>
      <trkpt lat="48.83865" lon="-0.88939">
        <ele>175.8</ele>
        <time>2020-11-12T10:54:02Z</time>
      </trkpt>
      <trkpt lat="48.83863" lon="-0.88946">
        <ele>176</ele>
        <time>2020-11-12T10:54:02Z</time>
      </trkpt>
      <trkpt lat="48.83857" lon="-0.88953">
        <ele>175.9</ele>
        <time>2020-11-12T10:54:02Z</time>
      </trkpt>
      <trkpt lat="48.83853" lon="-0.88967">
        <ele>175.9</ele>
        <time>2020-11-12T10:54:02Z</time>
      </trkpt>
      <trkpt lat="48.83846" lon="-0.88997">
        <ele>176.4</ele>
        <time>2020-11-12T10:54:02Z</time>
      </trkpt>
      <trkpt lat="48.83845" lon="-0.89002">
        <ele>176.4</ele>
        <time>2020-11-12T10:54:02Z</time>
      </trkpt>
      <trkpt lat="48.83854" lon="-0.89011">
        <ele>176.7</ele>
        <time>2020-11-12T10:54:02Z</time>
      </trkpt>
      <trkpt lat="48.83869" lon="-0.89023">
        <ele>177.2</ele>
        <time>2020-11-12T10:54:02Z</time>
      </trkpt>
      <trkpt lat="48.83881" lon="-0.89036">
        <ele>178</ele>
        <time>2020-11-12T10:54:02Z</time>
      </trkpt>
      <trkpt lat="48.8389" lon="-0.89049">
        <ele>178.7</ele>
        <time>2020-11-12T10:54:02Z</time>
      </trkpt>
      <trkpt lat="48.83895" lon="-0.89071">
        <ele>178.7</ele>
        <time>2020-11-12T10:54:02Z</time>
      </trkpt>
      <trkpt lat="48.83895" lon="-0.89086">
        <ele>178.9</ele>
        <time>2020-11-12T10:54:02Z</time>
      </trkpt>
      <trkpt lat="48.83896" lon="-0.89102">
        <ele>179.4</ele>
        <time>2020-11-12T10:54:02Z</time>
      </trkpt>
      <trkpt lat="48.83896" lon="-0.89103">
        <ele>179.5</ele>
        <time>2020-11-12T10:54:02Z</time>
      </trkpt>
      <trkpt lat="48.83896" lon="-0.89103">
        <ele>179.5</ele>
        <time>2020-11-12T10:54:02Z</time>
      </trkpt>
      <trkpt lat="48.83897" lon="-0.89126">
        <ele>179.9</ele>
        <time>2020-11-12T10:54:02Z</time>
      </trkpt>
      <trkpt lat="48.83875" lon="-0.89263">
        <ele>181.5</ele>
        <time>2020-11-12T10:54:02Z</time>
      </trkpt>
      <trkpt lat="48.83873" lon="-0.89274">
        <ele>181.6</ele>
        <time>2020-11-12T10:54:02Z</time>
      </trkpt>
      <trkpt lat="48.83878" lon="-0.89276">
        <ele>181.4</ele>
        <time>2020-11-12T10:54:02Z</time>
      </trkpt>
      <trkpt lat="48.83881" lon="-0.89278">
        <ele>181.3</ele>
        <time>2020-11-12T10:54:02Z</time>
      </trkpt>
      <trkpt lat="48.83889" lon="-0.89282">
        <ele>181</ele>
        <time>2020-11-12T10:54:02Z</time>
      </trkpt>
      <trkpt lat="48.83909" lon="-0.89293">
        <ele>179.6</ele>
        <time>2020-11-12T10:54:02Z</time>
      </trkpt>
      <trkpt lat="48.83922" lon="-0.893">
        <ele>178.7</ele>
        <time>2020-11-12T10:54:02Z</time>
      </trkpt>
      <trkpt lat="48.83926" lon="-0.89303">
        <ele>178.3</ele>
        <time>2020-11-12T10:54:02Z</time>
      </trkpt>
      <trkpt lat="48.8393" lon="-0.89305">
        <ele>178</ele>
        <time>2020-11-12T10:54:02Z</time>
      </trkpt>
      <trkpt lat="48.83935" lon="-0.89308">
        <ele>177.6</ele>
        <time>2020-11-12T10:54:02Z</time>
      </trkpt>
      <trkpt lat="48.83944" lon="-0.89313">
        <ele>176.8</ele>
        <time>2020-11-12T10:54:02Z</time>
      </trkpt>
      <trkpt lat="48.84001" lon="-0.8934">
        <ele>173</ele>
        <time>2020-11-12T10:54:02Z</time>
      </trkpt>
      <trkpt lat="48.84003" lon="-0.8934">
        <ele>173</ele>
        <time>2020-11-12T10:54:02Z</time>
      </trkpt>
      <trkpt lat="48.84003" lon="-0.89332">
        <ele>173</ele>
        <time>2020-11-12T10:54:02Z</time>
      </trkpt>
      <trkpt lat="48.84003" lon="-0.89332">
        <ele>173</ele>
        <time>2020-11-12T10:54:02Z</time>
      </trkpt>
      <trkpt lat="48.84003" lon="-0.89325">
        <ele>173</ele>
        <time>2020-11-12T10:54:02Z</time>
      </trkpt>
      <trkpt lat="48.84002" lon="-0.89309">
        <ele>173.1</ele>
        <time>2020-11-12T10:54:02Z</time>
      </trkpt>
      <trkpt lat="48.83996" lon="-0.89249">
        <ele>173.1</ele>
        <time>2020-11-12T10:54:02Z</time>
      </trkpt>
      <trkpt lat="48.83992" lon="-0.89202">
        <ele>173.3</ele>
        <time>2020-11-12T10:54:02Z</time>
      </trkpt>
      <trkpt lat="48.83996" lon="-0.89203">
        <ele>173.2</ele>
        <time>2020-11-12T10:54:02Z</time>
      </trkpt>
      <trkpt lat="48.83996" lon="-0.89203">
        <ele>173.2</ele>
        <time>2020-11-12T10:54:02Z</time>
      </trkpt>
      <trkpt lat="48.84043" lon="-0.89216">
        <ele>171.8</ele>
        <time>2020-11-12T10:54:02Z</time>
      </trkpt>
      <trkpt lat="48.8407" lon="-0.89223">
        <ele>171.5</ele>
        <time>2020-11-12T10:54:02Z</time>
      </trkpt>
      <trkpt lat="48.84112" lon="-0.89235">
        <ele>170.4</ele>
        <time>2020-11-12T10:54:02Z</time>
      </trkpt>
      <trkpt lat="48.84125" lon="-0.89237">
        <ele>169.5</ele>
        <time>2020-11-12T10:54:02Z</time>
      </trkpt>
      <trkpt lat="48.84144" lon="-0.89233">
        <ele>168.1</ele>
        <time>2020-11-12T10:54:02Z</time>
      </trkpt>
      <trkpt lat="48.84153" lon="-0.89235">
        <ele>167.7</ele>
        <time>2020-11-12T10:54:02Z</time>
      </trkpt>
      <trkpt lat="48.8416" lon="-0.89236">
        <ele>167.4</ele>
        <time>2020-11-12T10:54:02Z</time>
      </trkpt>
      <trkpt lat="48.84266" lon="-0.89283">
        <ele>159.4</ele>
        <time>2020-11-12T10:54:02Z</time>
      </trkpt>
      <trkpt lat="48.84266" lon="-0.89283">
        <ele>159.4</ele>
        <time>2020-11-12T10:54:02Z</time>
      </trkpt>
      <trkpt lat="48.84269" lon="-0.89284">
        <ele>159.3</ele>
        <time>2020-11-12T10:54:02Z</time>
      </trkpt>
      <trkpt lat="48.84273" lon="-0.89254">
        <ele>158.5</ele>
        <time>2020-11-12T10:54:02Z</time>
      </trkpt>
      <trkpt lat="48.84286" lon="-0.892">
        <ele>155.3</ele>
        <time>2020-11-12T10:54:02Z</time>
      </trkpt>
      <trkpt lat="48.84286" lon="-0.892">
        <ele>155.3</ele>
        <time>2020-11-12T10:54:02Z</time>
      </trkpt>
      <trkpt lat="48.84287" lon="-0.89195">
        <ele>155</ele>
        <time>2020-11-12T10:54:02Z</time>
      </trkpt>
      <trkpt lat="48.84322" lon="-0.89206">
        <ele>151.6</ele>
        <time>2020-11-12T10:54:02Z</time>
      </trkpt>
      <trkpt lat="48.84336" lon="-0.8911">
        <ele>146.8</ele>
        <time>2020-11-12T10:54:02Z</time>
      </trkpt>
      <trkpt lat="48.84336" lon="-0.8911">
        <ele>146.8</ele>
        <time>2020-11-12T10:54:02Z</time>
      </trkpt>
      <trkpt lat="48.84336" lon="-0.89106">
        <ele>146.6</ele>
        <time>2020-11-12T10:54:02Z</time>
      </trkpt>
      <trkpt lat="48.84319" lon="-0.89102">
        <ele>148</ele>
        <time>2020-11-12T10:54:02Z</time>
      </trkpt>
      <trkpt lat="48.84326" lon="-0.89032">
        <ele>145.4</ele>
        <time>2020-11-12T10:54:02Z</time>
      </trkpt>
      <trkpt lat="48.84326" lon="-0.89029">
        <ele>145.3</ele>
        <time>2020-11-12T10:54:02Z</time>
      </trkpt>
      <trkpt lat="48.84326" lon="-0.89029">
        <ele>145.3</ele>
        <time>2020-11-12T10:54:02Z</time>
      </trkpt>
      <trkpt lat="48.84327" lon="-0.89027">
        <ele>145.2</ele>
        <time>2020-11-12T10:54:02Z</time>
      </trkpt>
      <trkpt lat="48.84309" lon="-0.89019">
        <ele>145.2</ele>
        <time>2020-11-12T10:54:02Z</time>
      </trkpt>
      <trkpt lat="48.8429" lon="-0.89005">
        <ele>145.4</ele>
        <time>2020-11-12T10:54:02Z</time>
      </trkpt>
      <trkpt lat="48.84278" lon="-0.88987">
        <ele>146</ele>
        <time>2020-11-12T10:54:02Z</time>
      </trkpt>
      <trkpt lat="48.84257" lon="-0.88945">
        <ele>146.5</ele>
        <time>2020-11-12T10:54:02Z</time>
      </trkpt>
      <trkpt lat="48.84246" lon="-0.88921">
        <ele>147.4</ele>
        <time>2020-11-12T10:54:02Z</time>
      </trkpt>
      <trkpt lat="48.84244" lon="-0.88916">
        <ele>147.7</ele>
        <time>2020-11-12T10:54:02Z</time>
      </trkpt>
      <trkpt lat="48.84241" lon="-0.8891">
        <ele>147.9</ele>
        <time>2020-11-12T10:54:02Z</time>
      </trkpt>
      <trkpt lat="48.84239" lon="-0.88906">
        <ele>148</ele>
        <time>2020-11-12T10:54:02Z</time>
      </trkpt>
      <trkpt lat="48.84214" lon="-0.88852">
        <ele>151.3</ele>
        <time>2020-11-12T10:54:02Z</time>
      </trkpt>
      <trkpt lat="48.84206" lon="-0.88847">
        <ele>152</ele>
        <time>2020-11-12T10:54:02Z</time>
      </trkpt>
      <trkpt lat="48.84195" lon="-0.88845">
        <ele>152.8</ele>
        <time>2020-11-12T10:54:02Z</time>
      </trkpt>
      <trkpt lat="48.84183" lon="-0.88847">
        <ele>154</ele>
        <time>2020-11-12T10:54:02Z</time>
      </trkpt>
      <trkpt lat="48.84176" lon="-0.88848">
        <ele>154.7</ele>
        <time>2020-11-12T10:54:02Z</time>
      </trkpt>
      <trkpt lat="48.84127" lon="-0.88857">
        <ele>159.7</ele>
        <time>2020-11-12T10:54:02Z</time>
      </trkpt>
      <trkpt lat="48.84119" lon="-0.88867">
        <ele>160.8</ele>
        <time>2020-11-12T10:54:02Z</time>
      </trkpt>
      <trkpt lat="48.84116" lon="-0.88879">
        <ele>161.9</ele>
        <time>2020-11-12T10:54:02Z</time>
      </trkpt>
      <trkpt lat="48.84116" lon="-0.88962">
        <ele>165.6</ele>
        <time>2020-11-12T10:54:02Z</time>
      </trkpt>
      <trkpt lat="48.84115" lon="-0.88971">
        <ele>166.1</ele>
        <time>2020-11-12T10:54:02Z</time>
      </trkpt>
      <trkpt lat="48.8411" lon="-0.8898">
        <ele>167.3</ele>
        <time>2020-11-12T10:54:02Z</time>
      </trkpt>
      <trkpt lat="48.841" lon="-0.88985">
        <ele>167.7</ele>
        <time>2020-11-12T10:54:02Z</time>
      </trkpt>
      <trkpt lat="48.84075" lon="-0.88991">
        <ele>168</ele>
        <time>2020-11-12T10:54:02Z</time>
      </trkpt>
      <trkpt lat="48.84043" lon="-0.88997">
        <ele>168.5</ele>
        <time>2020-11-12T10:54:02Z</time>
      </trkpt>
      <trkpt lat="48.84025" lon="-0.89001">
        <ele>169.2</ele>
        <time>2020-11-12T10:54:02Z</time>
      </trkpt>
      <trkpt lat="48.84024" lon="-0.89001">
        <ele>169.3</ele>
        <time>2020-11-12T10:54:02Z</time>
      </trkpt>
      <trkpt lat="48.84024" lon="-0.89001">
        <ele>169.3</ele>
        <time>2020-11-12T10:54:02Z</time>
      </trkpt>
      <trkpt lat="48.84025" lon="-0.89001">
        <ele>169.2</ele>
        <time>2020-11-12T10:54:02Z</time>
      </trkpt>
      <trkpt lat="48.84023" lon="-0.88972">
        <ele>170.2</ele>
        <time>2020-11-12T10:54:02Z</time>
      </trkpt>
      <trkpt lat="48.84021" lon="-0.88947">
        <ele>170.2</ele>
        <time>2020-11-12T10:54:02Z</time>
      </trkpt>
      <trkpt lat="48.84021" lon="-0.88938">
        <ele>170.1</ele>
        <time>2020-11-12T10:54:02Z</time>
      </trkpt>
      <trkpt lat="48.84021" lon="-0.88938">
        <ele>170.1</ele>
        <time>2020-11-12T10:54:02Z</time>
      </trkpt>
      <trkpt lat="48.84021" lon="-0.88899">
        <ele>169.3</ele>
        <time>2020-11-12T10:54:02Z</time>
      </trkpt>
      <trkpt lat="48.84021" lon="-0.88887">
        <ele>169.3</ele>
        <time>2020-11-12T10:54:02Z</time>
      </trkpt>
      <trkpt lat="48.84018" lon="-0.88871">
        <ele>169.4</ele>
        <time>2020-11-12T10:54:02Z</time>
      </trkpt>
      <trkpt lat="48.84014" lon="-0.88855">
        <ele>169.4</ele>
        <time>2020-11-12T10:54:02Z</time>
      </trkpt>
      <trkpt lat="48.84008" lon="-0.88834">
        <ele>169.4</ele>
        <time>2020-11-12T10:54:02Z</time>
      </trkpt>
      <trkpt lat="48.84007" lon="-0.88835">
        <ele>169.5</ele>
        <time>2020-11-12T10:54:02Z</time>
      </trkpt>
      <trkpt lat="48.84007" lon="-0.88835">
        <ele>169.5</ele>
        <time>2020-11-12T10:54:02Z</time>
      </trkpt>
      <trkpt lat="48.84008" lon="-0.88834">
        <ele>169.4</ele>
        <time>2020-11-12T10:54:02Z</time>
      </trkpt>
      <trkpt lat="48.84058" lon="-0.88801">
        <ele>166</ele>
        <time>2020-11-12T10:54:02Z</time>
      </trkpt>
      <trkpt lat="48.84109" lon="-0.88768">
        <ele>165</ele>
        <time>2020-11-12T10:54:02Z</time>
      </trkpt>
      <trkpt lat="48.84131" lon="-0.88755">
        <ele>163.9</ele>
        <time>2020-11-12T10:54:02Z</time>
      </trkpt>
      <trkpt lat="48.84142" lon="-0.88748">
        <ele>163.1</ele>
        <time>2020-11-12T10:54:02Z</time>
      </trkpt>
      <trkpt lat="48.8415" lon="-0.88743">
        <ele>163</ele>
        <time>2020-11-12T10:54:02Z</time>
      </trkpt>
      <trkpt lat="48.84171" lon="-0.8873">
        <ele>161.9</ele>
        <time>2020-11-12T10:54:02Z</time>
      </trkpt>
      <trkpt lat="48.84202" lon="-0.88711">
        <ele>159</ele>
        <time>2020-11-12T10:54:02Z</time>
      </trkpt>
      <trkpt lat="48.84227" lon="-0.88695">
        <ele>157.7</ele>
        <time>2020-11-12T10:54:02Z</time>
      </trkpt>
      <trkpt lat="48.8426" lon="-0.88675">
        <ele>155.7</ele>
        <time>2020-11-12T10:54:02Z</time>
      </trkpt>
      <trkpt lat="48.84274" lon="-0.88666">
        <ele>154.5</ele>
        <time>2020-11-12T10:54:02Z</time>
      </trkpt>
      <trkpt lat="48.8429" lon="-0.88656">
        <ele>153.8</ele>
        <time>2020-11-12T10:54:02Z</time>
      </trkpt>
      <trkpt lat="48.84297" lon="-0.88652">
        <ele>153.3</ele>
        <time>2020-11-12T10:54:02Z</time>
      </trkpt>
      <trkpt lat="48.84305" lon="-0.88647">
        <ele>152.8</ele>
        <time>2020-11-12T10:54:02Z</time>
      </trkpt>
      <trkpt lat="48.84337" lon="-0.88626">
        <ele>151.2</ele>
        <time>2020-11-12T10:54:02Z</time>
      </trkpt>
      <trkpt lat="48.84352" lon="-0.88617">
        <ele>150</ele>
        <time>2020-11-12T10:54:02Z</time>
      </trkpt>
      <trkpt lat="48.84435" lon="-0.88566">
        <ele>143.9</ele>
        <time>2020-11-12T10:54:02Z</time>
      </trkpt>
      <trkpt lat="48.84462" lon="-0.8855">
        <ele>142.5</ele>
        <time>2020-11-12T10:54:02Z</time>
      </trkpt>
      <trkpt lat="48.84462" lon="-0.8855">
        <ele>142.5</ele>
        <time>2020-11-12T10:54:02Z</time>
      </trkpt>
      <trkpt lat="48.84471" lon="-0.88544">
        <ele>142.1</ele>
        <time>2020-11-12T10:54:02Z</time>
      </trkpt>
      <trkpt lat="48.84481" lon="-0.88538">
        <ele>141.4</ele>
        <time>2020-11-12T10:54:02Z</time>
      </trkpt>
      <trkpt lat="48.84545" lon="-0.885">
        <ele>136.8</ele>
        <time>2020-11-12T10:54:02Z</time>
      </trkpt>
      <trkpt lat="48.84551" lon="-0.88484">
        <ele>136.3</ele>
        <time>2020-11-12T10:54:02Z</time>
      </trkpt>
      <trkpt lat="48.84557" lon="-0.88476">
        <ele>136</ele>
        <time>2020-11-12T10:54:02Z</time>
      </trkpt>
      <trkpt lat="48.84556" lon="-0.8847">
        <ele>135.9</ele>
        <time>2020-11-12T10:54:02Z</time>
      </trkpt>
      <trkpt lat="48.84556" lon="-0.88464">
        <ele>135.7</ele>
        <time>2020-11-12T10:54:02Z</time>
      </trkpt>
      <trkpt lat="48.84558" lon="-0.88459">
        <ele>135.5</ele>
        <time>2020-11-12T10:54:02Z</time>
      </trkpt>
      <trkpt lat="48.8456" lon="-0.88454">
        <ele>135.3</ele>
        <time>2020-11-12T10:54:02Z</time>
      </trkpt>
      <trkpt lat="48.84563" lon="-0.88451">
        <ele>135.2</ele>
        <time>2020-11-12T10:54:02Z</time>
      </trkpt>
      <trkpt lat="48.84566" lon="-0.8845">
        <ele>135.1</ele>
        <time>2020-11-12T10:54:02Z</time>
      </trkpt>
      <trkpt lat="48.84567" lon="-0.8845">
        <ele>135.1</ele>
        <time>2020-11-12T10:54:02Z</time>
      </trkpt>
      <trkpt lat="48.84567" lon="-0.8845">
        <ele>135.1</ele>
        <time>2020-11-12T10:54:02Z</time>
      </trkpt>
      <trkpt lat="48.84569" lon="-0.88443">
        <ele>135</ele>
        <time>2020-11-12T10:54:02Z</time>
      </trkpt>
      <trkpt lat="48.84577" lon="-0.88446">
        <ele>135</ele>
        <time>2020-11-12T10:54:02Z</time>
      </trkpt>
      <trkpt lat="48.84576" lon="-0.88455">
        <ele>135.1</ele>
        <time>2020-11-12T10:54:02Z</time>
      </trkpt>
      <trkpt lat="48.84578" lon="-0.8846">
        <ele>135.1</ele>
        <time>2020-11-12T10:54:02Z</time>
      </trkpt>
      <trkpt lat="48.8458" lon="-0.88472">
        <ele>135.1</ele>
        <time>2020-11-12T10:54:02Z</time>
      </trkpt>
      <trkpt lat="48.84578" lon="-0.88478">
        <ele>135</ele>
        <time>2020-11-12T10:54:02Z</time>
      </trkpt>
      <trkpt lat="48.84577" lon="-0.8848">
        <ele>135</ele>
        <time>2020-11-12T10:54:02Z</time>
      </trkpt>
      <trkpt lat="48.84581" lon="-0.88492">
        <ele>134.4</ele>
        <time>2020-11-12T10:54:02Z</time>
      </trkpt>
      <trkpt lat="48.84583" lon="-0.88507">
        <ele>133.8</ele>
        <time>2020-11-12T10:54:02Z</time>
      </trkpt>
      <trkpt lat="48.84584" lon="-0.88522">
        <ele>133.2</ele>
        <time>2020-11-12T10:54:02Z</time>
      </trkpt>
      <trkpt lat="48.84583" lon="-0.88529">
        <ele>133</ele>
        <time>2020-11-12T10:54:02Z</time>
      </trkpt>
      <trkpt lat="48.84582" lon="-0.88536">
        <ele>132.8</ele>
        <time>2020-11-12T10:54:02Z</time>
      </trkpt>
      <trkpt lat="48.84575" lon="-0.88551">
        <ele>132.8</ele>
        <time>2020-11-12T10:54:02Z</time>
      </trkpt>
      <trkpt lat="48.84556" lon="-0.88574">
        <ele>132</ele>
        <time>2020-11-12T10:54:02Z</time>
      </trkpt>
      <trkpt lat="48.8454" lon="-0.88598">
        <ele>132.8</ele>
        <time>2020-11-12T10:54:02Z</time>
      </trkpt>
      <trkpt lat="48.84536" lon="-0.88608">
        <ele>131.7</ele>
        <time>2020-11-12T10:54:02Z</time>
      </trkpt>
      <trkpt lat="48.84535" lon="-0.88619">
        <ele>131</ele>
        <time>2020-11-12T10:54:02Z</time>
      </trkpt>
      <trkpt lat="48.84536" lon="-0.88629">
        <ele>130.6</ele>
        <time>2020-11-12T10:54:02Z</time>
      </trkpt>
      <trkpt lat="48.8454" lon="-0.88645">
        <ele>129.6</ele>
        <time>2020-11-12T10:54:02Z</time>
      </trkpt>
      <trkpt lat="48.8454" lon="-0.88645">
        <ele>129.6</ele>
        <time>2020-11-12T10:54:02Z</time>
      </trkpt>
      <trkpt lat="48.84543" lon="-0.88655">
        <ele>129.4</ele>
        <time>2020-11-12T10:54:02Z</time>
      </trkpt>
      <trkpt lat="48.84568" lon="-0.88635">
        <ele>129.7</ele>
        <time>2020-11-12T10:54:02Z</time>
      </trkpt>
      <trkpt lat="48.846" lon="-0.88612">
        <ele>128.4</ele>
        <time>2020-11-12T10:54:02Z</time>
      </trkpt>
      <trkpt lat="48.8461" lon="-0.88604">
        <ele>126.6</ele>
        <time>2020-11-12T10:54:02Z</time>
      </trkpt>
      <trkpt lat="48.84617" lon="-0.88598">
        <ele>126.3</ele>
        <time>2020-11-12T10:54:02Z</time>
      </trkpt>
      <trkpt lat="48.84628" lon="-0.88585">
        <ele>126.3</ele>
        <time>2020-11-12T10:54:02Z</time>
      </trkpt>
      <trkpt lat="48.84642" lon="-0.88566">
        <ele>126.1</ele>
        <time>2020-11-12T10:54:02Z</time>
      </trkpt>
      <trkpt lat="48.84646" lon="-0.8856">
        <ele>126.2</ele>
        <time>2020-11-12T10:54:02Z</time>
      </trkpt>
      <trkpt lat="48.84655" lon="-0.88544">
        <ele>127.1</ele>
        <time>2020-11-12T10:54:02Z</time>
      </trkpt>
      <trkpt lat="48.84656" lon="-0.88542">
        <ele>127.2</ele>
        <time>2020-11-12T10:54:02Z</time>
      </trkpt>
      <trkpt lat="48.84667" lon="-0.88522">
        <ele>127.4</ele>
        <time>2020-11-12T10:54:02Z</time>
      </trkpt>
      <trkpt lat="48.8469" lon="-0.88476">
        <ele>129.1</ele>
        <time>2020-11-12T10:54:02Z</time>
      </trkpt>
      <trkpt lat="48.84712" lon="-0.88433">
        <ele>130.9</ele>
        <time>2020-11-12T10:54:02Z</time>
      </trkpt>
      <trkpt lat="48.84714" lon="-0.8843">
        <ele>131</ele>
        <time>2020-11-12T10:54:02Z</time>
      </trkpt>
      <trkpt lat="48.8472" lon="-0.88418">
        <ele>131.1</ele>
        <time>2020-11-12T10:54:02Z</time>
      </trkpt>
      <trkpt lat="48.84727" lon="-0.88406">
        <ele>130.9</ele>
        <time>2020-11-12T10:54:02Z</time>
      </trkpt>
      <trkpt lat="48.84743" lon="-0.88384">
        <ele>130.6</ele>
        <time>2020-11-12T10:54:02Z</time>
      </trkpt>
      <trkpt lat="48.84761" lon="-0.88368">
        <ele>129.4</ele>
        <time>2020-11-12T10:54:02Z</time>
      </trkpt>
      <trkpt lat="48.84775" lon="-0.88357">
        <ele>129.1</ele>
        <time>2020-11-12T10:54:02Z</time>
      </trkpt>
      <trkpt lat="48.84778" lon="-0.8836">
        <ele>128.9</ele>
        <time>2020-11-12T10:54:02Z</time>
      </trkpt>
      <trkpt lat="48.84778" lon="-0.8836">
        <ele>128.9</ele>
        <time>2020-11-12T10:54:02Z</time>
      </trkpt>
      <trkpt lat="48.84801" lon="-0.88379">
        <ele>126.3</ele>
        <time>2020-11-12T10:54:02Z</time>
      </trkpt>
      <trkpt lat="48.84876" lon="-0.88443">
        <ele>123.1</ele>
        <time>2020-11-12T10:54:02Z</time>
      </trkpt>
      <trkpt lat="48.84877" lon="-0.88439">
        <ele>123.2</ele>
        <time>2020-11-12T10:54:02Z</time>
      </trkpt>
      <trkpt lat="48.84881" lon="-0.88435">
        <ele>123.3</ele>
        <time>2020-11-12T10:54:02Z</time>
      </trkpt>
      <trkpt lat="48.84883" lon="-0.88435">
        <ele>123.4</ele>
        <time>2020-11-12T10:54:02Z</time>
      </trkpt>
      <trkpt lat="48.84886" lon="-0.88437">
        <ele>123.3</ele>
        <time>2020-11-12T10:54:02Z</time>
      </trkpt>
      <trkpt lat="48.84888" lon="-0.8844">
        <ele>123.2</ele>
        <time>2020-11-12T10:54:02Z</time>
      </trkpt>
      <trkpt lat="48.84888" lon="-0.88443">
        <ele>123</ele>
        <time>2020-11-12T10:54:02Z</time>
      </trkpt>
      <trkpt lat="48.84888" lon="-0.88447">
        <ele>122.9</ele>
        <time>2020-11-12T10:54:02Z</time>
      </trkpt>
      <trkpt lat="48.84887" lon="-0.88449">
        <ele>122.8</ele>
        <time>2020-11-12T10:54:02Z</time>
      </trkpt>
      <trkpt lat="48.84885" lon="-0.88452">
        <ele>122.8</ele>
        <time>2020-11-12T10:54:02Z</time>
      </trkpt>
      <trkpt lat="48.8489" lon="-0.88461">
        <ele>122.4</ele>
        <time>2020-11-12T10:54:02Z</time>
      </trkpt>
      <trkpt lat="48.84917" lon="-0.8849">
        <ele>121.4</ele>
        <time>2020-11-12T10:54:02Z</time>
      </trkpt>
      <trkpt lat="48.84919" lon="-0.88492">
        <ele>121.4</ele>
        <time>2020-11-12T10:54:02Z</time>
      </trkpt>
      <trkpt lat="48.84957" lon="-0.8853">
        <ele>120.4</ele>
        <time>2020-11-12T10:54:02Z</time>
      </trkpt>
      <trkpt lat="48.84957" lon="-0.88531">
        <ele>120.4</ele>
        <time>2020-11-12T10:54:02Z</time>
      </trkpt>
      <trkpt lat="48.84959" lon="-0.88532">
        <ele>120.4</ele>
        <time>2020-11-12T10:54:02Z</time>
      </trkpt>
      <trkpt lat="48.84952" lon="-0.88541">
        <ele>120.1</ele>
        <time>2020-11-12T10:54:02Z</time>
      </trkpt>
      <trkpt lat="48.84926" lon="-0.88559">
        <ele>120.6</ele>
        <time>2020-11-12T10:54:02Z</time>
      </trkpt>
      <trkpt lat="48.84821" lon="-0.88583">
        <ele>122.4</ele>
        <time>2020-11-12T10:54:02Z</time>
      </trkpt>
      <trkpt lat="48.84821" lon="-0.88581">
        <ele>122.5</ele>
        <time>2020-11-12T10:54:02Z</time>
      </trkpt>
      <trkpt lat="48.84821" lon="-0.88581">
        <ele>122.5</ele>
        <time>2020-11-12T10:54:02Z</time>
      </trkpt>
      <trkpt lat="48.84811" lon="-0.88551">
        <ele>124</ele>
        <time>2020-11-12T10:54:02Z</time>
      </trkpt>
      <trkpt lat="48.84801" lon="-0.88507">
        <ele>125.9</ele>
        <time>2020-11-12T10:54:02Z</time>
      </trkpt>
      <trkpt lat="48.84795" lon="-0.88497">
        <ele>126.4</ele>
        <time>2020-11-12T10:54:02Z</time>
      </trkpt>
      <trkpt lat="48.84789" lon="-0.88498">
        <ele>126.6</ele>
        <time>2020-11-12T10:54:02Z</time>
      </trkpt>
      <trkpt lat="48.84788" lon="-0.88498">
        <ele>126.6</ele>
        <time>2020-11-12T10:54:02Z</time>
      </trkpt>
      <trkpt lat="48.84788" lon="-0.88498">
        <ele>126.6</ele>
        <time>2020-11-12T10:54:02Z</time>
      </trkpt>
      <trkpt lat="48.84778" lon="-0.88503">
        <ele>126.9</ele>
        <time>2020-11-12T10:54:02Z</time>
      </trkpt>
      <trkpt lat="48.84742" lon="-0.88528">
        <ele>128</ele>
        <time>2020-11-12T10:54:02Z</time>
      </trkpt>
      <trkpt lat="48.84722" lon="-0.88539">
        <ele>127.6</ele>
        <time>2020-11-12T10:54:02Z</time>
      </trkpt>
      <trkpt lat="48.84722" lon="-0.88539">
        <ele>127.6</ele>
        <time>2020-11-12T10:54:02Z</time>
      </trkpt>
      <trkpt lat="48.84721" lon="-0.8854">
        <ele>127.6</ele>
        <time>2020-11-12T10:54:02Z</time>
      </trkpt>
      <trkpt lat="48.84722" lon="-0.88549">
        <ele>127.2</ele>
        <time>2020-11-12T10:54:02Z</time>
      </trkpt>
      <trkpt lat="48.84719" lon="-0.88556">
        <ele>127</ele>
        <time>2020-11-12T10:54:02Z</time>
      </trkpt>
      <trkpt lat="48.84695" lon="-0.88572">
        <ele>126.4</ele>
        <time>2020-11-12T10:54:02Z</time>
      </trkpt>
      <trkpt lat="48.84701" lon="-0.886">
        <ele>124.8</ele>
        <time>2020-11-12T10:54:02Z</time>
      </trkpt>
      <trkpt lat="48.84701" lon="-0.886">
        <ele>124.8</ele>
        <time>2020-11-12T10:54:02Z</time>
      </trkpt>
      <trkpt lat="48.84705" lon="-0.88617">
        <ele>123.8</ele>
        <time>2020-11-12T10:54:02Z</time>
      </trkpt>
      <trkpt lat="48.84756" lon="-0.8861">
        <ele>123.8</ele>
        <time>2020-11-12T10:54:02Z</time>
      </trkpt>
      <trkpt lat="48.84773" lon="-0.88602">
        <ele>123.5</ele>
        <time>2020-11-12T10:54:02Z</time>
      </trkpt>
      <trkpt lat="48.84819" lon="-0.88584">
        <ele>122.5</ele>
        <time>2020-11-12T10:54:02Z</time>
      </trkpt>
      <trkpt lat="48.84819" lon="-0.88584">
        <ele>122.5</ele>
        <time>2020-11-12T10:54:02Z</time>
      </trkpt>
      <trkpt lat="48.84821" lon="-0.88583">
        <ele>122.4</ele>
        <time>2020-11-12T10:54:02Z</time>
      </trkpt>
      <trkpt lat="48.84926" lon="-0.88559">
        <ele>120.6</ele>
        <time>2020-11-12T10:54:02Z</time>
      </trkpt>
      <trkpt lat="48.84922" lon="-0.88657">
        <ele>117.4</ele>
        <time>2020-11-12T10:54:02Z</time>
      </trkpt>
      <trkpt lat="48.84922" lon="-0.88657">
        <ele>117.4</ele>
        <time>2020-11-12T10:54:02Z</time>
      </trkpt>
      <trkpt lat="48.84922" lon="-0.88663">
        <ele>117.1</ele>
        <time>2020-11-12T10:54:02Z</time>
      </trkpt>
      <trkpt lat="48.84872" lon="-0.88662">
        <ele>118.1</ele>
        <time>2020-11-12T10:54:02Z</time>
      </trkpt>
      <trkpt lat="48.84818" lon="-0.88674">
        <ele>118.4</ele>
        <time>2020-11-12T10:54:02Z</time>
      </trkpt>
      <trkpt lat="48.84819" lon="-0.8868">
        <ele>118.3</ele>
        <time>2020-11-12T10:54:02Z</time>
      </trkpt>
      <trkpt lat="48.84819" lon="-0.8868">
        <ele>118.3</ele>
        <time>2020-11-12T10:54:02Z</time>
      </trkpt>
      <trkpt lat="48.84822" lon="-0.88691">
        <ele>118</ele>
        <time>2020-11-12T10:54:02Z</time>
      </trkpt>
      <trkpt lat="48.84822" lon="-0.88692">
        <ele>118</ele>
        <time>2020-11-12T10:54:02Z</time>
      </trkpt>
      <trkpt lat="48.84843" lon="-0.88769">
        <ele>114.3</ele>
        <time>2020-11-12T10:54:02Z</time>
      </trkpt>
      <trkpt lat="48.84849" lon="-0.88792">
        <ele>113.5</ele>
        <time>2020-11-12T10:54:02Z</time>
      </trkpt>
      <trkpt lat="48.84863" lon="-0.88847">
        <ele>110.5</ele>
        <time>2020-11-12T10:54:02Z</time>
      </trkpt>
      <trkpt lat="48.84865" lon="-0.88856">
        <ele>110.2</ele>
        <time>2020-11-12T10:54:02Z</time>
      </trkpt>
      <trkpt lat="48.84876" lon="-0.88875">
        <ele>110</ele>
        <time>2020-11-12T10:54:02Z</time>
      </trkpt>
      <trkpt lat="48.84901" lon="-0.88884">
        <ele>109.1</ele>
        <time>2020-11-12T10:54:02Z</time>
      </trkpt>
      <trkpt lat="48.84941" lon="-0.88887">
        <ele>108.2</ele>
        <time>2020-11-12T10:54:02Z</time>
      </trkpt>
      <trkpt lat="48.84956" lon="-0.88886">
        <ele>108.1</ele>
        <time>2020-11-12T10:54:02Z</time>
      </trkpt>
      <trkpt lat="48.84986" lon="-0.88886">
        <ele>107.7</ele>
        <time>2020-11-12T10:54:02Z</time>
      </trkpt>
      <trkpt lat="48.84987" lon="-0.88886">
        <ele>107.6</ele>
        <time>2020-11-12T10:54:02Z</time>
      </trkpt>
      <trkpt lat="48.84987" lon="-0.88886">
        <ele>107.6</ele>
        <time>2020-11-12T10:54:02Z</time>
      </trkpt>
      <trkpt lat="48.84988" lon="-0.88886">
        <ele>107.6</ele>
        <time>2020-11-12T10:54:02Z</time>
      </trkpt>
      <trkpt lat="48.8499" lon="-0.88939">
        <ele>106.5</ele>
        <time>2020-11-12T10:54:02Z</time>
      </trkpt>
      <trkpt lat="48.84994" lon="-0.88946">
        <ele>106.2</ele>
        <time>2020-11-12T10:54:02Z</time>
      </trkpt>
      <trkpt lat="48.84994" lon="-0.88946">
        <ele>106.2</ele>
        <time>2020-11-12T10:54:02Z</time>
      </trkpt>
      <trkpt lat="48.84994" lon="-0.88946">
        <ele>106.2</ele>
        <time>2020-11-12T10:54:02Z</time>
      </trkpt>
      <trkpt lat="48.84994" lon="-0.88946">
        <ele>106.2</ele>
        <time>2020-11-12T10:54:02Z</time>
      </trkpt>
      <trkpt lat="48.8499" lon="-0.88939">
        <ele>106.5</ele>
        <time>2020-11-12T10:54:02Z</time>
      </trkpt>
      <trkpt lat="48.84988" lon="-0.88886">
        <ele>107.6</ele>
        <time>2020-11-12T10:54:02Z</time>
      </trkpt>
      <trkpt lat="48.85026" lon="-0.8888">
        <ele>108</ele>
        <time>2020-11-12T10:54:02Z</time>
      </trkpt>
      <trkpt lat="48.85031" lon="-0.88877">
        <ele>107.9</ele>
        <time>2020-11-12T10:54:02Z</time>
      </trkpt>
      <trkpt lat="48.85054" lon="-0.88868">
        <ele>107.8</ele>
        <time>2020-11-12T10:54:02Z</time>
      </trkpt>
      <trkpt lat="48.85068" lon="-0.88858">
        <ele>108.1</ele>
        <time>2020-11-12T10:54:02Z</time>
      </trkpt>
      <trkpt lat="48.85094" lon="-0.8884">
        <ele>108.4</ele>
        <time>2020-11-12T10:54:02Z</time>
      </trkpt>
      <trkpt lat="48.85094" lon="-0.8884">
        <ele>108.4</ele>
        <time>2020-11-12T10:54:02Z</time>
      </trkpt>
      <trkpt lat="48.85096" lon="-0.88838">
        <ele>108.4</ele>
        <time>2020-11-12T10:54:02Z</time>
      </trkpt>
      <trkpt lat="48.85119" lon="-0.88902">
        <ele>105.5</ele>
        <time>2020-11-12T10:54:02Z</time>
      </trkpt>
      <trkpt lat="48.85126" lon="-0.88909">
        <ele>105.3</ele>
        <time>2020-11-12T10:54:02Z</time>
      </trkpt>
      <trkpt lat="48.85138" lon="-0.8891">
        <ele>105.2</ele>
        <time>2020-11-12T10:54:02Z</time>
      </trkpt>
      <trkpt lat="48.8518" lon="-0.88881">
        <ele>107.8</ele>
        <time>2020-11-12T10:54:02Z</time>
      </trkpt>
      <trkpt lat="48.85184" lon="-0.88896">
        <ele>107.4</ele>
        <time>2020-11-12T10:54:02Z</time>
      </trkpt>
      <trkpt lat="48.85189" lon="-0.88937">
        <ele>106.2</ele>
        <time>2020-11-12T10:54:02Z</time>
      </trkpt>
      <trkpt lat="48.8519" lon="-0.88987">
        <ele>104.5</ele>
        <time>2020-11-12T10:54:02Z</time>
      </trkpt>
      <trkpt lat="48.85184" lon="-0.89055">
        <ele>103</ele>
        <time>2020-11-12T10:54:02Z</time>
      </trkpt>
      <trkpt lat="48.85184" lon="-0.89057">
        <ele>103</ele>
        <time>2020-11-12T10:54:02Z</time>
      </trkpt>
      <trkpt lat="48.85184" lon="-0.89057">
        <ele>103</ele>
        <time>2020-11-12T10:54:02Z</time>
      </trkpt>
      <trkpt lat="48.85175" lon="-0.89098">
        <ele>101.5</ele>
        <time>2020-11-12T10:54:02Z</time>
      </trkpt>
      <trkpt lat="48.85159" lon="-0.89136">
        <ele>101.3</ele>
        <time>2020-11-12T10:54:02Z</time>
      </trkpt>
      <trkpt lat="48.85128" lon="-0.89182">
        <ele>101.4</ele>
        <time>2020-11-12T10:54:02Z</time>
      </trkpt>
      <trkpt lat="48.85107" lon="-0.89199">
        <ele>101</ele>
        <time>2020-11-12T10:54:02Z</time>
      </trkpt>
      <trkpt lat="48.8508" lon="-0.89209">
        <ele>101.6</ele>
        <time>2020-11-12T10:54:02Z</time>
      </trkpt>
      <trkpt lat="48.85078" lon="-0.8921">
        <ele>101.6</ele>
        <time>2020-11-12T10:54:02Z</time>
      </trkpt>
      <trkpt lat="48.85011" lon="-0.89225">
        <ele>103.4</ele>
        <time>2020-11-12T10:54:02Z</time>
      </trkpt>
      <trkpt lat="48.8497" lon="-0.89239">
        <ele>104.4</ele>
        <time>2020-11-12T10:54:02Z</time>
      </trkpt>
      <trkpt lat="48.84949" lon="-0.89241">
        <ele>104.3</ele>
        <time>2020-11-12T10:54:02Z</time>
      </trkpt>
      <trkpt lat="48.8494" lon="-0.89242">
        <ele>104.4</ele>
        <time>2020-11-12T10:54:02Z</time>
      </trkpt>
      <trkpt lat="48.84906" lon="-0.89233">
        <ele>105</ele>
        <time>2020-11-12T10:54:02Z</time>
      </trkpt>
      <trkpt lat="48.84868" lon="-0.89221">
        <ele>105.8</ele>
        <time>2020-11-12T10:54:02Z</time>
      </trkpt>
      <trkpt lat="48.84808" lon="-0.89209">
        <ele>107.4</ele>
        <time>2020-11-12T10:54:02Z</time>
      </trkpt>
      <trkpt lat="48.84794" lon="-0.89208">
        <ele>107.7</ele>
        <time>2020-11-12T10:54:02Z</time>
      </trkpt>
      <trkpt lat="48.84794" lon="-0.89208">
        <ele>107.7</ele>
        <time>2020-11-12T10:54:02Z</time>
      </trkpt>
      <trkpt lat="48.8478" lon="-0.89206">
        <ele>108</ele>
        <time>2020-11-12T10:54:02Z</time>
      </trkpt>
      <trkpt lat="48.84747" lon="-0.89197">
        <ele>109.1</ele>
        <time>2020-11-12T10:54:02Z</time>
      </trkpt>
      <trkpt lat="48.84712" lon="-0.89216">
        <ele>109.5</ele>
        <time>2020-11-12T10:54:02Z</time>
      </trkpt>
      <trkpt lat="48.84671" lon="-0.89241">
        <ele>110.2</ele>
        <time>2020-11-12T10:54:02Z</time>
      </trkpt>
      <trkpt lat="48.84651" lon="-0.89253">
        <ele>110.6</ele>
        <time>2020-11-12T10:54:02Z</time>
      </trkpt>
      <trkpt lat="48.84641" lon="-0.89209">
        <ele>111.4</ele>
        <time>2020-11-12T10:54:02Z</time>
      </trkpt>
      <trkpt lat="48.84636" lon="-0.8917">
        <ele>112.2</ele>
        <time>2020-11-12T10:54:02Z</time>
      </trkpt>
      <trkpt lat="48.8463" lon="-0.89134">
        <ele>113.3</ele>
        <time>2020-11-12T10:54:02Z</time>
      </trkpt>
      <trkpt lat="48.8463" lon="-0.89134">
        <ele>113.3</ele>
        <time>2020-11-12T10:54:02Z</time>
      </trkpt>
      <trkpt lat="48.84626" lon="-0.89112">
        <ele>113.5</ele>
        <time>2020-11-12T10:54:02Z</time>
      </trkpt>
      <trkpt lat="48.84623" lon="-0.89103">
        <ele>113.7</ele>
        <time>2020-11-12T10:54:02Z</time>
      </trkpt>
      <trkpt lat="48.84621" lon="-0.891">
        <ele>113.8</ele>
        <time>2020-11-12T10:54:02Z</time>
      </trkpt>
      <trkpt lat="48.84613" lon="-0.89096">
        <ele>114</ele>
        <time>2020-11-12T10:54:02Z</time>
      </trkpt>
      <trkpt lat="48.84607" lon="-0.89107">
        <ele>114.2</ele>
        <time>2020-11-12T10:54:02Z</time>
      </trkpt>
      <trkpt lat="48.84601" lon="-0.89119">
        <ele>114.4</ele>
        <time>2020-11-12T10:54:02Z</time>
      </trkpt>
      <trkpt lat="48.84589" lon="-0.89131">
        <ele>114.8</ele>
        <time>2020-11-12T10:54:02Z</time>
      </trkpt>
      <trkpt lat="48.84582" lon="-0.89145">
        <ele>115</ele>
        <time>2020-11-12T10:54:02Z</time>
      </trkpt>
      <trkpt lat="48.8458" lon="-0.89147">
        <ele>115.1</ele>
        <time>2020-11-12T10:54:02Z</time>
      </trkpt>
      <trkpt lat="48.84572" lon="-0.89156">
        <ele>115.4</ele>
        <time>2020-11-12T10:54:02Z</time>
      </trkpt>
      <trkpt lat="48.84528" lon="-0.89186">
        <ele>117.3</ele>
        <time>2020-11-12T10:54:02Z</time>
      </trkpt>
      <trkpt lat="48.84518" lon="-0.89193">
        <ele>117.8</ele>
        <time>2020-11-12T10:54:02Z</time>
      </trkpt>
      <trkpt lat="48.84518" lon="-0.89193">
        <ele>117.8</ele>
        <time>2020-11-12T10:54:02Z</time>
      </trkpt>
      <trkpt lat="48.84517" lon="-0.89194">
        <ele>117.8</ele>
        <time>2020-11-12T10:54:02Z</time>
      </trkpt>
      <trkpt lat="48.84516" lon="-0.89199">
        <ele>117.9</ele>
        <time>2020-11-12T10:54:02Z</time>
      </trkpt>
      <trkpt lat="48.84513" lon="-0.89248">
        <ele>119</ele>
        <time>2020-11-12T10:54:02Z</time>
      </trkpt>
      <trkpt lat="48.84513" lon="-0.89314">
        <ele>117.3</ele>
        <time>2020-11-12T10:54:02Z</time>
      </trkpt>
      <trkpt lat="48.84517" lon="-0.89344">
        <ele>117.1</ele>
        <time>2020-11-12T10:54:02Z</time>
      </trkpt>
      <trkpt lat="48.84517" lon="-0.89346">
        <ele>117</ele>
        <time>2020-11-12T10:54:02Z</time>
      </trkpt>
      <trkpt lat="48.84526" lon="-0.89388">
        <ele>115.3</ele>
        <time>2020-11-12T10:54:02Z</time>
      </trkpt>
      <trkpt lat="48.84534" lon="-0.89426">
        <ele>114.8</ele>
        <time>2020-11-12T10:54:02Z</time>
      </trkpt>
      <trkpt lat="48.84536" lon="-0.89454">
        <ele>114.8</ele>
        <time>2020-11-12T10:54:02Z</time>
      </trkpt>
      <trkpt lat="48.84537" lon="-0.89471">
        <ele>115</ele>
        <time>2020-11-12T10:54:02Z</time>
      </trkpt>
      <trkpt lat="48.8454" lon="-0.89475">
        <ele>114.8</ele>
        <time>2020-11-12T10:54:02Z</time>
      </trkpt>
      <trkpt lat="48.84544" lon="-0.89484">
        <ele>114.8</ele>
        <time>2020-11-12T10:54:02Z</time>
      </trkpt>
      <trkpt lat="48.84543" lon="-0.8949">
        <ele>115</ele>
        <time>2020-11-12T10:54:02Z</time>
      </trkpt>
      <trkpt lat="48.84543" lon="-0.8949">
        <ele>115</ele>
        <time>2020-11-12T10:54:02Z</time>
      </trkpt>
      <trkpt lat="48.84543" lon="-0.89498">
        <ele>115.4</ele>
        <time>2020-11-12T10:54:02Z</time>
      </trkpt>
      <trkpt lat="48.8454" lon="-0.89505">
        <ele>115.5</ele>
        <time>2020-11-12T10:54:02Z</time>
      </trkpt>
      <trkpt lat="48.84542" lon="-0.89524">
        <ele>115</ele>
        <time>2020-11-12T10:54:02Z</time>
      </trkpt>
      <trkpt lat="48.84543" lon="-0.89526">
        <ele>114.9</ele>
        <time>2020-11-12T10:54:02Z</time>
      </trkpt>
      <trkpt lat="48.84555" lon="-0.8957">
        <ele>112.5</ele>
        <time>2020-11-12T10:54:02Z</time>
      </trkpt>
      <trkpt lat="48.84558" lon="-0.89596">
        <ele>111.3</ele>
        <time>2020-11-12T10:54:02Z</time>
      </trkpt>
      <trkpt lat="48.84557" lon="-0.89621">
        <ele>110.5</ele>
        <time>2020-11-12T10:54:02Z</time>
      </trkpt>
      <trkpt lat="48.84555" lon="-0.89636">
        <ele>110.1</ele>
        <time>2020-11-12T10:54:02Z</time>
      </trkpt>
      <trkpt lat="48.84551" lon="-0.89653">
        <ele>109.6</ele>
        <time>2020-11-12T10:54:02Z</time>
      </trkpt>
      <trkpt lat="48.84543" lon="-0.89665">
        <ele>109.1</ele>
        <time>2020-11-12T10:54:02Z</time>
      </trkpt>
      <trkpt lat="48.8453" lon="-0.89685">
        <ele>108</ele>
        <time>2020-11-12T10:54:02Z</time>
      </trkpt>
      <trkpt lat="48.84527" lon="-0.89693">
        <ele>108.1</ele>
        <time>2020-11-12T10:54:02Z</time>
      </trkpt>
      <trkpt lat="48.84527" lon="-0.89704">
        <ele>106.7</ele>
        <time>2020-11-12T10:54:02Z</time>
      </trkpt>
      <trkpt lat="48.84538" lon="-0.89734">
        <ele>104.2</ele>
        <time>2020-11-12T10:54:02Z</time>
      </trkpt>
      <trkpt lat="48.84543" lon="-0.89748">
        <ele>104.5</ele>
        <time>2020-11-12T10:54:02Z</time>
      </trkpt>
      <trkpt lat="48.84558" lon="-0.89796">
        <ele>105.9</ele>
        <time>2020-11-12T10:54:02Z</time>
      </trkpt>
      <trkpt lat="48.84557" lon="-0.898">
        <ele>105.9</ele>
        <time>2020-11-12T10:54:02Z</time>
      </trkpt>
      <trkpt lat="48.84557" lon="-0.898">
        <ele>105.9</ele>
        <time>2020-11-12T10:54:02Z</time>
      </trkpt>
      <trkpt lat="48.84549" lon="-0.89837">
        <ele>106</ele>
        <time>2020-11-12T10:54:02Z</time>
      </trkpt>
      <trkpt lat="48.84545" lon="-0.89846">
        <ele>106</ele>
        <time>2020-11-12T10:54:02Z</time>
      </trkpt>
      <trkpt lat="48.84537" lon="-0.89862">
        <ele>106</ele>
        <time>2020-11-12T10:54:02Z</time>
      </trkpt>
      <trkpt lat="48.84528" lon="-0.89884">
        <ele>106</ele>
        <time>2020-11-12T10:54:02Z</time>
      </trkpt>
      <trkpt lat="48.84523" lon="-0.89908">
        <ele>106.8</ele>
        <time>2020-11-12T10:54:02Z</time>
      </trkpt>
      <trkpt lat="48.84507" lon="-0.90077">
        <ele>110.8</ele>
        <time>2020-11-12T10:54:02Z</time>
      </trkpt>
      <trkpt lat="48.84507" lon="-0.90077">
        <ele>110.8</ele>
        <time>2020-11-12T10:54:02Z</time>
      </trkpt>
      <trkpt lat="48.84502" lon="-0.90132">
        <ele>111.8</ele>
        <time>2020-11-12T10:54:02Z</time>
      </trkpt>
      <trkpt lat="48.84501" lon="-0.90148">
        <ele>112.3</ele>
        <time>2020-11-12T10:54:02Z</time>
      </trkpt>
      <trkpt lat="48.845" lon="-0.90154">
        <ele>112.5</ele>
        <time>2020-11-12T10:54:02Z</time>
      </trkpt>
      <trkpt lat="48.84497" lon="-0.90196">
        <ele>114.1</ele>
        <time>2020-11-12T10:54:02Z</time>
      </trkpt>
      <trkpt lat="48.84497" lon="-0.90214">
        <ele>114.2</ele>
        <time>2020-11-12T10:54:02Z</time>
      </trkpt>
      <trkpt lat="48.84496" lon="-0.90228">
        <ele>114.5</ele>
        <time>2020-11-12T10:54:02Z</time>
      </trkpt>
      <trkpt lat="48.84499" lon="-0.90258">
        <ele>115.7</ele>
        <time>2020-11-12T10:54:02Z</time>
      </trkpt>
      <trkpt lat="48.84507" lon="-0.90288">
        <ele>117.1</ele>
        <time>2020-11-12T10:54:02Z</time>
      </trkpt>
      <trkpt lat="48.84523" lon="-0.90327">
        <ele>117.8</ele>
        <time>2020-11-12T10:54:02Z</time>
      </trkpt>
      <trkpt lat="48.8453" lon="-0.9036">
        <ele>118.4</ele>
        <time>2020-11-12T10:54:02Z</time>
      </trkpt>
      <trkpt lat="48.84532" lon="-0.90395">
        <ele>118.3</ele>
        <time>2020-11-12T10:54:02Z</time>
      </trkpt>
      <trkpt lat="48.8453" lon="-0.90467">
        <ele>120.4</ele>
        <time>2020-11-12T10:54:02Z</time>
      </trkpt>
      <trkpt lat="48.84531" lon="-0.90515">
        <ele>121.1</ele>
        <time>2020-11-12T10:54:02Z</time>
      </trkpt>
      <trkpt lat="48.84538" lon="-0.90558">
        <ele>120.6</ele>
        <time>2020-11-12T10:54:02Z</time>
      </trkpt>
      <trkpt lat="48.8454" lon="-0.90568">
        <ele>120.5</ele>
        <time>2020-11-12T10:54:02Z</time>
      </trkpt>
      <trkpt lat="48.84555" lon="-0.90657">
        <ele>122.7</ele>
        <time>2020-11-12T10:54:02Z</time>
      </trkpt>
      <trkpt lat="48.84558" lon="-0.90682">
        <ele>122.9</ele>
        <time>2020-11-12T10:54:02Z</time>
      </trkpt>
      <trkpt lat="48.84555" lon="-0.90702">
        <ele>123.1</ele>
        <time>2020-11-12T10:54:02Z</time>
      </trkpt>
      <trkpt lat="48.84555" lon="-0.90702">
        <ele>123.1</ele>
        <time>2020-11-12T10:54:02Z</time>
      </trkpt>
      <trkpt lat="48.84554" lon="-0.90712">
        <ele>123.3</ele>
        <time>2020-11-12T10:54:02Z</time>
      </trkpt>
      <trkpt lat="48.84557" lon="-0.90714">
        <ele>122.8</ele>
        <time>2020-11-12T10:54:02Z</time>
      </trkpt>
      <trkpt lat="48.84567" lon="-0.90728">
        <ele>121.5</ele>
        <time>2020-11-12T10:54:02Z</time>
      </trkpt>
      <trkpt lat="48.84587" lon="-0.90838">
        <ele>125.2</ele>
        <time>2020-11-12T10:54:02Z</time>
      </trkpt>
      <trkpt lat="48.84595" lon="-0.90865">
        <ele>126.2</ele>
        <time>2020-11-12T10:54:02Z</time>
      </trkpt>
      <trkpt lat="48.84696" lon="-0.91066">
        <ele>122.9</ele>
        <time>2020-11-12T10:54:02Z</time>
      </trkpt>
      <trkpt lat="48.84698" lon="-0.91072">
        <ele>122.7</ele>
        <time>2020-11-12T10:54:02Z</time>
      </trkpt>
      <trkpt lat="48.84698" lon="-0.91072">
        <ele>122.7</ele>
        <time>2020-11-12T10:54:02Z</time>
      </trkpt>
      <trkpt lat="48.84696" lon="-0.91066">
        <ele>122.9</ele>
        <time>2020-11-12T10:54:02Z</time>
      </trkpt>
      <trkpt lat="48.84794" lon="-0.90994">
        <ele>118</ele>
        <time>2020-11-12T10:54:02Z</time>
      </trkpt>
      <trkpt lat="48.84828" lon="-0.90968">
        <ele>116.6</ele>
        <time>2020-11-12T10:54:02Z</time>
      </trkpt>
      <trkpt lat="48.8485" lon="-0.90943">
        <ele>115.9</ele>
        <time>2020-11-12T10:54:02Z</time>
      </trkpt>
      <trkpt lat="48.84887" lon="-0.90911">
        <ele>115.6</ele>
        <time>2020-11-12T10:54:02Z</time>
      </trkpt>
      <trkpt lat="48.85026" lon="-0.90789">
        <ele>113.4</ele>
        <time>2020-11-12T10:54:02Z</time>
      </trkpt>
      <trkpt lat="48.85037" lon="-0.90763">
        <ele>112.8</ele>
        <time>2020-11-12T10:54:02Z</time>
      </trkpt>
      <trkpt lat="48.85069" lon="-0.90728">
        <ele>112.2</ele>
        <time>2020-11-12T10:54:02Z</time>
      </trkpt>
      <trkpt lat="48.85076" lon="-0.90707">
        <ele>111.9</ele>
        <time>2020-11-12T10:54:02Z</time>
      </trkpt>
      <trkpt lat="48.85081" lon="-0.90704">
        <ele>111.9</ele>
        <time>2020-11-12T10:54:02Z</time>
      </trkpt>
      <trkpt lat="48.85084" lon="-0.90715">
        <ele>112.1</ele>
        <time>2020-11-12T10:54:02Z</time>
      </trkpt>
      <trkpt lat="48.85084" lon="-0.90715">
        <ele>112.1</ele>
        <time>2020-11-12T10:54:02Z</time>
      </trkpt>
      <trkpt lat="48.85081" lon="-0.90704">
        <ele>111.9</ele>
        <time>2020-11-12T10:54:02Z</time>
      </trkpt>
      <trkpt lat="48.85048" lon="-0.90625">
        <ele>110.1</ele>
        <time>2020-11-12T10:54:02Z</time>
      </trkpt>
      <trkpt lat="48.85045" lon="-0.90618">
        <ele>110.1</ele>
        <time>2020-11-12T10:54:02Z</time>
      </trkpt>
      <trkpt lat="48.85043" lon="-0.90614">
        <ele>110</ele>
        <time>2020-11-12T10:54:02Z</time>
      </trkpt>
      <trkpt lat="48.85025" lon="-0.90583">
        <ele>109</ele>
        <time>2020-11-12T10:54:02Z</time>
      </trkpt>
      <trkpt lat="48.84979" lon="-0.90509">
        <ele>107</ele>
        <time>2020-11-12T10:54:02Z</time>
      </trkpt>
      <trkpt lat="48.84937" lon="-0.90448">
        <ele>106.7</ele>
        <time>2020-11-12T10:54:02Z</time>
      </trkpt>
      <trkpt lat="48.84916" lon="-0.90418">
        <ele>106</ele>
        <time>2020-11-12T10:54:02Z</time>
      </trkpt>
      <trkpt lat="48.84911" lon="-0.90409">
        <ele>106</ele>
        <time>2020-11-12T10:54:02Z</time>
      </trkpt>
      <trkpt lat="48.84903" lon="-0.90398">
        <ele>106</ele>
        <time>2020-11-12T10:54:02Z</time>
      </trkpt>
      <trkpt lat="48.84882" lon="-0.90354">
        <ele>106</ele>
        <time>2020-11-12T10:54:02Z</time>
      </trkpt>
      <trkpt lat="48.8488" lon="-0.90349">
        <ele>106</ele>
        <time>2020-11-12T10:54:02Z</time>
      </trkpt>
      <trkpt lat="48.84854" lon="-0.90279">
        <ele>106</ele>
        <time>2020-11-12T10:54:02Z</time>
      </trkpt>
      <trkpt lat="48.84828" lon="-0.90199">
        <ele>105.3</ele>
        <time>2020-11-12T10:54:02Z</time>
      </trkpt>
      <trkpt lat="48.84804" lon="-0.90134">
        <ele>105.1</ele>
        <time>2020-11-12T10:54:02Z</time>
      </trkpt>
      <trkpt lat="48.84773" lon="-0.90067">
        <ele>106</ele>
        <time>2020-11-12T10:54:02Z</time>
      </trkpt>
      <trkpt lat="48.84765" lon="-0.90051">
        <ele>105.8</ele>
        <time>2020-11-12T10:54:02Z</time>
      </trkpt>
      <trkpt lat="48.8476" lon="-0.90042">
        <ele>105.5</ele>
        <time>2020-11-12T10:54:02Z</time>
      </trkpt>
      <trkpt lat="48.84751" lon="-0.90024">
        <ele>105</ele>
        <time>2020-11-12T10:54:02Z</time>
      </trkpt>
      <trkpt lat="48.84746" lon="-0.90012">
        <ele>105.2</ele>
        <time>2020-11-12T10:54:02Z</time>
      </trkpt>
      <trkpt lat="48.84737" lon="-0.89995">
        <ele>105.4</ele>
        <time>2020-11-12T10:54:02Z</time>
      </trkpt>
      <trkpt lat="48.84692" lon="-0.89905">
        <ele>105</ele>
        <time>2020-11-12T10:54:02Z</time>
      </trkpt>
      <trkpt lat="48.84672" lon="-0.89868">
        <ele>105</ele>
        <time>2020-11-12T10:54:02Z</time>
      </trkpt>
      <trkpt lat="48.84638" lon="-0.89842">
        <ele>105</ele>
        <time>2020-11-12T10:54:02Z</time>
      </trkpt>
      <trkpt lat="48.84631" lon="-0.89837">
        <ele>105</ele>
        <time>2020-11-12T10:54:02Z</time>
      </trkpt>
      <trkpt lat="48.84593" lon="-0.8981">
        <ele>105</ele>
        <time>2020-11-12T10:54:02Z</time>
      </trkpt>
      <trkpt lat="48.84587" lon="-0.89807">
        <ele>105</ele>
        <time>2020-11-12T10:54:02Z</time>
      </trkpt>
      <trkpt lat="48.84576" lon="-0.89802">
        <ele>105.3</ele>
        <time>2020-11-12T10:54:02Z</time>
      </trkpt>
      <trkpt lat="48.8456" lon="-0.89796">
        <ele>105.8</ele>
        <time>2020-11-12T10:54:02Z</time>
      </trkpt>
      <trkpt lat="48.8456" lon="-0.89796">
        <ele>105.8</ele>
        <time>2020-11-12T10:54:02Z</time>
      </trkpt>
      <trkpt lat="48.84558" lon="-0.89796">
        <ele>105.9</ele>
        <time>2020-11-12T10:54:02Z</time>
      </trkpt>
      <trkpt lat="48.84543" lon="-0.89748">
        <ele>104.5</ele>
        <time>2020-11-12T10:54:02Z</time>
      </trkpt>
      <trkpt lat="48.84538" lon="-0.89734">
        <ele>104.2</ele>
        <time>2020-11-12T10:54:02Z</time>
      </trkpt>
      <trkpt lat="48.84527" lon="-0.89704">
        <ele>106.7</ele>
        <time>2020-11-12T10:54:02Z</time>
      </trkpt>
      <trkpt lat="48.84527" lon="-0.89693">
        <ele>108.1</ele>
        <time>2020-11-12T10:54:02Z</time>
      </trkpt>
      <trkpt lat="48.8453" lon="-0.89685">
        <ele>108</ele>
        <time>2020-11-12T10:54:02Z</time>
      </trkpt>
      <trkpt lat="48.84543" lon="-0.89665">
        <ele>109.1</ele>
        <time>2020-11-12T10:54:02Z</time>
      </trkpt>
      <trkpt lat="48.84551" lon="-0.89653">
        <ele>109.6</ele>
        <time>2020-11-12T10:54:02Z</time>
      </trkpt>
      <trkpt lat="48.84555" lon="-0.89636">
        <ele>110.1</ele>
        <time>2020-11-12T10:54:02Z</time>
      </trkpt>
      <trkpt lat="48.84557" lon="-0.89621">
        <ele>110.5</ele>
        <time>2020-11-12T10:54:02Z</time>
      </trkpt>
      <trkpt lat="48.84553" lon="-0.89596">
        <ele>111.6</ele>
        <time>2020-11-12T10:54:02Z</time>
      </trkpt>
      <trkpt lat="48.84553" lon="-0.89596">
        <ele>111.6</ele>
        <time>2020-11-12T10:54:02Z</time>
      </trkpt>
      <trkpt lat="48.84551" lon="-0.89577">
        <ele>112.2</ele>
        <time>2020-11-12T10:54:02Z</time>
      </trkpt>
      <trkpt lat="48.84541" lon="-0.8956">
        <ele>112.9</ele>
        <time>2020-11-12T10:54:02Z</time>
      </trkpt>
      <trkpt lat="48.84541" lon="-0.8956">
        <ele>112.9</ele>
        <time>2020-11-12T10:54:02Z</time>
      </trkpt>
      <trkpt lat="48.84542" lon="-0.89562">
        <ele>112.8</ele>
        <time>2020-11-12T10:54:02Z</time>
      </trkpt>
    </trkseg>
  </trk>
</gpx>